| time (UTC) | temp F | wind direction | speed MPH | gust MPH | rain 1hr in | rain 24hr in | rain mn in | humidity % | barometer mb |
| 20260506212005 | 58 | 195 | 7.0 | 19.0 | 0.00 | 0.00 | 0.00 | 87 | 1006.7 |
| 20260506211905 | 58 | 195 | 7.0 | 19.0 | 0.00 | 0.00 | 0.00 | 87 | 1006.6 |
| 20260506211805 | 58 | 197 | 7.0 | 19.0 | 0.00 | 0.00 | 0.00 | 87 | 1006.7 |
| 20260506211705 | 58 | 197 | 6.0 | 18.0 | 0.00 | 0.00 | 0.00 | 87 | 1006.7 |
| 20260506211605 | 58 | 196 | 6.0 | 16.0 | 0.00 | 0.00 | 0.00 | 87 | 1006.7 |
| 20260506211506 | 0 | 208 | 6.0 | 16.0 | 0.00 | 0.00 | 0.00 | 1006.9 | |
| 20260506211405 | 58 | 195 | 6.0 | 16.0 | 0.00 | 0.00 | 0.00 | 87 | 1006.7 |
| 20260506211305 | 58 | 196 | 5.0 | 16.0 | 0.00 | 0.00 | 0.00 | 87 | 1006.7 |
| 20260506211205 | 58 | 194 | 5.0 | 16.0 | 0.00 | 0.00 | 0.00 | 87 | 1006.8 |
| 20260506211104 | 58 | 193 | 5.0 | 11.0 | 0.00 | 0.00 | 0.00 | 87 | 1006.6 |
| 20260506211005 | 58 | 189 | 5.0 | 12.0 | 0.00 | 0.00 | 0.00 | 87 | 1006.7 |
| 20260506210905 | 58 | 187 | 6.0 | 12.0 | 0.00 | 0.00 | 0.00 | 87 | 1006.8 |
| 20260506210805 | 58 | 188 | 6.0 | 13.0 | 0.00 | 0.00 | 0.00 | 87 | 1006.6 |
| 20260506210705 | 58 | 189 | 6.0 | 13.0 | 0.00 | 0.00 | 0.00 | 87 | 1006.6 |
| 20260506210605 | 58 | 188 | 6.0 | 15.0 | 0.00 | 0.00 | 0.00 | 86 | 1006.6 |
| 20260506210505 | 58 | 186 | 5.0 | 15.0 | 0.00 | 0.00 | 0.00 | 86 | 1006.6 |
| 20260506210405 | 58 | 188 | 5.0 | 15.0 | 0.00 | 0.00 | 0.00 | 86 | 1006.7 |
| 20260506210305 | 58 | 189 | 5.0 | 15.0 | 0.00 | 0.00 | 0.00 | 86 | 1006.7 |
| 20260506210206 | 58 | 190 | 5.0 | 15.0 | 0.00 | 0.00 | 0.00 | 86 | 1006.8 |
| 20260506210121 | 58 | 167 | 4.0 | 15.0 | 0.00 | 0.00 | 0.00 | 86 | 1007.0 |
| 20260506210105 | 58 | 192 | 5.0 | 15.0 | 0.00 | 0.00 | 0.00 | 86 | 1006.7 |
| 20260506210005 | 58 | 195 | 5.0 | 15.0 | 0.00 | 0.00 | 0.00 | 86 | 1006.8 |
| 20260506205906 | 58 | 198 | 5.0 | 15.0 | 0.00 | 0.00 | 0.00 | 86 | 1006.8 |
| 20260506205805 | 58 | 198 | 5.0 | 15.0 | 0.00 | 0.00 | 0.00 | 86 | 1006.8 |
| 20260506205705 | 58 | 195 | 5.0 | 15.0 | 0.00 | 0.00 | 0.00 | 86 | 1006.8 |
| 20260506205605 | 58 | 198 | 5.0 | 15.0 | 0.00 | 0.00 | 0.00 | 86 | 1006.9 |
| 20260506205505 | 58 | 200 | 6.0 | 15.0 | 0.00 | 0.00 | 0.00 | 86 | 1006.9 |
| 20260506205405 | 58 | 199 | 6.0 | 17.0 | 0.00 | 0.00 | 0.00 | 86 | 1006.9 |
| 20260506205306 | 58 | 198 | 7.0 | 17.0 | 0.00 | 0.00 | 0.00 | 86 | 1006.9 |
| 20260506205205 | 58 | 199 | 7.0 | 17.0 | 0.00 | 0.00 | 0.00 | 86 | 1006.9 |
| 20260506205105 | 58 | 200 | 7.0 | 17.0 | 0.00 | 0.00 | 0.00 | 86 | 1006.9 |
| 20260506205005 | 58 | 201 | 7.0 | 21.0 | 0.00 | 0.00 | 0.00 | 85 | 1007.0 |
| 20260506204905 | 58 | 202 | 7.0 | 21.0 | 0.00 | 0.00 | 0.00 | 85 | 1007.0 |
| 20260506204805 | 58 | 201 | 7.0 | 21.0 | 0.00 | 0.00 | 0.00 | 85 | 1007.1 |
| 20260506204622 | 58 | 179 | 6.0 | 21.0 | 0.00 | 0.00 | 0.00 | 85 | 1007.3 |
| 20260506203605 | 59 | 201 | 6.0 | 16.0 | 0.00 | 0.00 | 0.00 | 85 | 1007.3 |
| 20260506203505 | 59 | 201 | 6.0 | 16.0 | 0.00 | 0.00 | 0.00 | 85 | 1007.3 |
| 20260506203405 | 59 | 202 | 6.0 | 16.0 | 0.00 | 0.00 | 0.00 | 85 | 1007.2 |
| 20260506203305 | 59 | 200 | 6.0 | 16.0 | 0.00 | 0.00 | 0.00 | 85 | 1007.2 |
| 20260506203205 | 59 | 201 | 6.0 | 18.0 | 0.00 | 0.00 | 0.00 | 85 | 1007.2 |
| 20260506203145 | 59 | 173 | 6.0 | 18.0 | 0.00 | 0.00 | 0.00 | 85 | 1007.4 |
| 20260506203106 | 59 | 203 | 6.0 | 18.0 | 0.00 | 0.00 | 0.00 | 85 | 1007.3 |
| 20260506203005 | 59 | 208 | 6.0 | 18.0 | 0.00 | 0.00 | 0.00 | 85 | 1007.3 |
| 20260506202905 | 59 | 207 | 6.0 | 18.0 | 0.00 | 0.00 | 0.00 | 85 | 1007.4 |
| 20260506202805 | 59 | 209 | 6.0 | 18.0 | 0.00 | 0.00 | 0.00 | 85 | 1007.4 |
| 20260506202706 | 59 | 209 | 6.0 | 18.0 | 0.00 | 0.00 | 0.00 | 85 | 1007.4 |
| 20260506202605 | 59 | 205 | 6.0 | 18.0 | 0.00 | 0.00 | 0.00 | 85 | 1007.4 |
| 20260506202505 | 59 | 206 | 6.0 | 18.0 | 0.00 | 0.00 | 0.00 | 85 | 1007.4 |
| 20260506202405 | 59 | 207 | 6.0 | 18.0 | 0.00 | 0.00 | 0.00 | 84 | 1007.3 |
| 20260506202306 | 59 | 207 | 6.0 | 18.0 | 0.00 | 0.00 | 0.00 | 84 | 1007.4 |
| 20260506202205 | 59 | 208 | 6.0 | 16.0 | 0.00 | 0.00 | 0.00 | 85 | 1007.3 |
| 20260506202105 | 59 | 209 | 6.0 | 16.0 | 0.00 | 0.00 | 0.00 | 84 | 1007.3 |
| 20260506202005 | 59 | 206 | 6.0 | 16.0 | 0.00 | 0.00 | 0.00 | 84 | 1007.1 |
| 20260506201905 | 59 | 203 | 6.0 | 16.0 | 0.00 | 0.00 | 0.00 | 84 | 1007.1 |
| 20260506201805 | 59 | 203 | 6.0 | 16.0 | 0.00 | 0.00 | 0.00 | 84 | 1007.1 |
| 20260506201705 | 59 | 205 | 6.0 | 16.0 | 0.00 | 0.00 | 0.00 | 84 | 1007.1 |
| 20260506201620 | 59 | 185 | 4.0 | 16.0 | 0.00 | 0.00 | 0.00 | 84 | 1007.3 |
| 20260506201605 | 59 | 204 | 6.0 | 16.0 | 0.00 | 0.00 | 0.00 | 84 | 1007.1 |
| 20260506201505 | 59 | 205 | 7.0 | 16.0 | 0.00 | 0.00 | 0.00 | 84 | 1007.1 |
| 20260506201405 | 59 | 202 | 6.0 | 16.0 | 0.00 | 0.00 | 0.00 | 84 | 1007.2 |
| 20260506201305 | 59 | 203 | 6.0 | 16.0 | 0.00 | 0.00 | 0.00 | 84 | 1007.0 |
| 20260506201205 | 59 | 202 | 7.0 | 16.0 | 0.00 | 0.00 | 0.00 | 84 | 1007.0 |
| 20260506201106 | 60 | 199 | 8.0 | 22.0 | 0.00 | 0.00 | 0.00 | 84 | 1006.8 |
| 20260506201005 | 60 | 200 | 8.0 | 22.0 | 0.00 | 0.00 | 0.00 | 84 | 1006.9 |
| 20260506200905 | 60 | 201 | 8.0 | 22.0 | 0.00 | 0.00 | 0.00 | 84 | 1007.0 |
| 20260506200804 | 60 | 201 | 8.0 | 22.0 | 0.00 | 0.00 | 0.00 | 84 | 1007.2 |
| 20260506200705 | 60 | 197 | 8.0 | 22.0 | 0.00 | 0.00 | 0.00 | 84 | 1007.1 |
| 20260506200605 | 60 | 198 | 9.0 | 22.0 | 0.00 | 0.00 | 0.00 | 84 | 1007.1 |
| 20260506200505 | 60 | 196 | 9.0 | 22.0 | 0.00 | 0.00 | 0.00 | 84 | 1007.1 |
| 20260506200405 | 60 | 198 | 8.0 | 22.0 | 0.00 | 0.00 | 0.00 | 84 | 1007.1 |
| 20260506200305 | 60 | 197 | 8.0 | 22.0 | 0.00 | 0.00 | 0.00 | 84 | 1007.2 |
| 20260506200205 | 60 | 196 | 8.0 | 22.0 | 0.00 | 0.00 | 0.00 | 85 | 1007.2 |
| 20260506200108 | 59 | 157 | 10.0 | 19.0 | 0.00 | 0.00 | 0.00 | 85 | 1007.3 |
| 20260506200105 | 60 | 196 | 8.0 | 19.0 | 0.00 | 0.00 | 0.00 | 85 | 1007.2 |
| 20260506200006 | 60 | 196 | 8.0 | 22.0 | 0.00 | 0.00 | 0.00 | 85 | 1007.2 |
| 20260506195905 | 60 | 197 | 7.0 | 22.0 | 0.00 | 0.00 | 0.00 | 85 | 1007.0 |
| 20260506195805 | 60 | 195 | 7.0 | 22.0 | 0.00 | 0.00 | 0.00 | 85 | 1007.0 |
| 20260506195705 | 60 | 195 | 7.0 | 22.0 | 0.00 | 0.00 | 0.00 | 85 | 1007.1 |
| 20260506195605 | 60 | 197 | 7.0 | 22.0 | 0.00 | 0.00 | 0.00 | 85 | 1007.2 |
| 20260506195505 | 60 | 196 | 7.0 | 22.0 | 0.00 | 0.00 | 0.00 | 85 | 1007.2 |
| 20260506195405 | 60 | 193 | 8.0 | 22.0 | 0.00 | 0.00 | 0.00 | 85 | 1007.1 |
| 20260506195306 | 60 | 193 | 8.0 | 22.0 | 0.00 | 0.00 | 0.00 | 85 | 1007.1 |
| 20260506195205 | 60 | 193 | 8.0 | 22.0 | 0.00 | 0.00 | 0.00 | 85 | 1007.2 |
| 20260506195105 | 60 | 194 | 7.0 | 22.0 | 0.00 | 0.00 | 0.00 | 85 | 1007.2 |
| 20260506195005 | 60 | 192 | 7.0 | 20.0 | 0.00 | 0.00 | 0.00 | 85 | 1007.1 |
| 20260506194905 | 60 | 193 | 7.0 | 20.0 | 0.00 | 0.00 | 0.00 | 85 | 1007.2 |
| 20260506194804 | 60 | 196 | 8.0 | 20.0 | 0.00 | 0.00 | 0.00 | 85 | 1007.2 |
| 20260506194705 | 60 | 196 | 8.0 | 20.0 | 0.00 | 0.00 | 0.00 | 85 | 1007.3 |
| 20260506194616 | 60 | 218 | 8.0 | 20.0 | 0.00 | 0.00 | 0.00 | 85 | 1007.5 |
| 20260506194605 | 60 | 192 | 8.0 | 20.0 | 0.00 | 0.00 | 0.00 | 85 | 1007.3 |
| 20260506194505 | 60 | 193 | 8.0 | 20.0 | 0.00 | 0.00 | 0.00 | 85 | 1007.3 |
| 20260506194405 | 60 | 192 | 8.0 | 20.0 | 0.00 | 0.00 | 0.00 | 85 | 1007.1 |
| 20260506194304 | 60 | 194 | 8.0 | 20.0 | 0.00 | 0.00 | 0.00 | 85 | 1007.3 |
| 20260506194205 | 60 | 193 | 9.0 | 20.0 | 0.00 | 0.00 | 0.00 | 85 | 1007.3 |
| 20260506194105 | 60 | 191 | 8.0 | 20.0 | 0.00 | 0.00 | 0.00 | 85 | 1007.3 |
| 20260506194005 | 60 | 194 | 8.0 | 19.0 | 0.00 | 0.00 | 0.00 | 85 | 1007.2 |
| 20260506193905 | 60 | 193 | 9.0 | 19.0 | 0.00 | 0.00 | 0.00 | 85 | 1007.2 |
| 20260506193805 | 60 | 189 | 8.0 | 19.0 | 0.00 | 0.00 | 0.00 | 85 | 1007.3 |
| 20260506193705 | 60 | 190 | 8.0 | 18.0 | 0.00 | 0.00 | 0.00 | 85 | 1007.3 |
| 20260506193605 | 60 | 191 | 8.0 | 18.0 | 0.00 | 0.00 | 0.00 | 85 | 1007.3 |
| 20260506193505 | 60 | 190 | 7.0 | 18.0 | 0.00 | 0.00 | 0.00 | 85 | 1007.3 |
| 20260506193405 | 60 | 192 | 8.0 | 17.0 | 0.00 | 0.00 | 0.00 | 85 | 1007.4 |
| 20260506193305 | 60 | 192 | 7.0 | 18.0 | 0.00 | 0.00 | 0.00 | 85 | 1007.4 |
| 20260506193205 | 60 | 193 | 8.0 | 18.0 | 0.00 | 0.00 | 0.00 | 85 | 1007.5 |
| 20260506193107 | 60 | 69 | 7.0 | 18.0 | 0.00 | 0.00 | 0.00 | 85 | 1007.7 |
| 20260506193005 | 60 | 194 | 8.0 | 23.0 | 0.00 | 0.00 | 0.00 | 85 | 1007.4 |
| 20260506192905 | 60 | 196 | 8.0 | 23.0 | 0.00 | 0.00 | 0.00 | 85 | 1007.4 |
| 20260506192805 | 60 | 198 | 8.0 | 23.0 | 0.00 | 0.00 | 0.00 | 85 | 1007.4 |
| 20260506192706 | 60 | 200 | 8.0 | 23.0 | 0.00 | 0.00 | 0.00 | 85 | 1007.5 |
| 20260506192605 | 60 | 199 | 8.0 | 23.0 | 0.00 | 0.00 | 0.00 | 85 | 1007.5 |
| 20260506192505 | 60 | 200 | 8.0 | 23.0 | 0.00 | 0.00 | 0.00 | 85 | 1007.5 |
| 20260506192405 | 60 | 201 | 7.0 | 23.0 | 0.00 | 0.00 | 0.00 | 85 | 1007.6 |
| 20260506192306 | 60 | 201 | 7.0 | 23.0 | 0.00 | 0.00 | 0.00 | 85 | 1007.5 |
| 20260506192205 | 60 | 203 | 7.0 | 23.0 | 0.00 | 0.00 | 0.00 | 85 | 1007.6 |
| 20260506192105 | 60 | 204 | 6.0 | 18.0 | 0.00 | 0.00 | 0.00 | 85 | 1007.7 |
| 20260506192005 | 60 | 202 | 6.0 | 14.0 | 0.00 | 0.00 | 0.00 | 86 | 1007.6 |
| 20260506191905 | 60 | 200 | 5.0 | 14.0 | 0.00 | 0.00 | 0.00 | 86 | 1007.7 |
| 20260506191805 | 60 | 201 | 6.0 | 14.0 | 0.00 | 0.00 | 0.00 | 86 | 1007.7 |
| 20260506191705 | 60 | 201 | 6.0 | 14.0 | 0.00 | 0.00 | 0.00 | 86 | 1007.6 |
| 20260506191617 | 59 | 182 | 5.0 | 14.0 | 0.00 | 0.00 | 0.00 | 86 | 1007.9 |
| 20260506191605 | 60 | 203 | 6.0 | 17.0 | 0.00 | 0.00 | 0.00 | 86 | 1007.7 |
| 20260506191505 | 60 | 203 | 6.0 | 17.0 | 0.00 | 0.00 | 0.00 | 86 | 1007.7 |
| 20260506191405 | 60 | 202 | 6.0 | 17.0 | 0.00 | 0.00 | 0.00 | 86 | 1007.7 |
| 20260506191305 | 60 | 202 | 5.0 | 17.0 | 0.00 | 0.00 | 0.00 | 86 | 1007.8 |
| 20260506191205 | 60 | 201 | 6.0 | 17.0 | 0.00 | 0.00 | 0.00 | 86 | 1007.7 |
| 20260506191105 | 60 | 201 | 6.0 | 17.0 | 0.00 | 0.00 | 0.00 | 86 | 1007.7 |
| 20260506191005 | 60 | 200 | 6.0 | 17.0 | 0.00 | 0.00 | 0.00 | 86 | 1007.7 |
| 20260506190905 | 60 | 201 | 6.0 | 17.0 | 0.00 | 0.00 | 0.00 | 86 | 1007.8 |
| 20260506190805 | 60 | 196 | 6.0 | 17.0 | 0.00 | 0.00 | 0.00 | 86 | 1007.8 |
| 20260506190705 | 60 | 196 | 6.0 | 17.0 | 0.00 | 0.00 | 0.00 | 86 | 1007.8 |
| 20260506190606 | 60 | 195 | 6.0 | 17.0 | 0.00 | 0.00 | 0.00 | 86 | 1007.8 |
| 20260506190505 | 60 | 194 | 6.0 | 17.0 | 0.00 | 0.00 | 0.00 | 86 | 1007.9 |
| 20260506190405 | 60 | 196 | 6.0 | 17.0 | 0.00 | 0.00 | 0.00 | 86 | 1007.9 |
| 20260506190305 | 60 | 198 | 7.0 | 17.0 | 0.00 | 0.00 | 0.00 | 86 | 1008.0 |
| 20260506190205 | 60 | 199 | 7.0 | 17.0 | 0.00 | 0.00 | 0.00 | 86 | 1008.0 |
| 20260506190108 | 59 | 214 | 6.0 | 17.0 | 0.00 | 0.00 | 0.00 | 86 | 1008.2 |
| 20260506190105 | 60 | 200 | 7.0 | 17.0 | 0.00 | 0.00 | 0.00 | 86 | 1008.0 |
| 20260506190005 | 60 | 200 | 7.0 | 18.0 | 0.00 | 0.00 | 0.00 | 86 | 1007.9 |
| 20260506185905 | 60 | 201 | 7.0 | 18.0 | 0.00 | 0.00 | 0.00 | 86 | 1007.9 |
| 20260506185804 | 60 | 205 | 8.0 | 18.0 | 0.00 | 0.00 | 0.00 | 86 | 1008.0 |
| 20260506185705 | 60 | 205 | 8.0 | 18.0 | 0.00 | 0.00 | 0.00 | 86 | 1008.0 |
| 20260506185605 | 60 | 206 | 8.0 | 18.0 | 0.00 | 0.00 | 0.00 | 86 | 1008.0 |
| 20260506185505 | 60 | 207 | 8.0 | 18.0 | 0.00 | 0.00 | 0.00 | 86 | 1008.0 |
| 20260506185405 | 60 | 204 | 8.0 | 18.0 | 0.00 | 0.00 | 0.00 | 86 | 1008.0 |
| 20260506185307 | 60 | 205 | 7.0 | 18.0 | 0.00 | 0.00 | 0.00 | 86 | 1008.0 |
| 20260506185205 | 60 | 205 | 7.0 | 18.0 | 0.00 | 0.00 | 0.00 | 86 | 1008.1 |
| 20260506185105 | 60 | 203 | 7.0 | 23.0 | 0.00 | 0.00 | 0.00 | 86 | 1008.1 |
| 20260506185004 | 60 | 203 | 7.0 | 23.0 | 0.00 | 0.00 | 0.00 | 86 | 1008.2 |
| 20260506184905 | 60 | 203 | 8.0 | 23.0 | 0.00 | 0.00 | 0.00 | 86 | 1008.2 |
| 20260506184804 | 60 | 201 | 7.0 | 23.0 | 0.00 | 0.00 | 0.00 | 86 | 1008.1 |
| 20260506184705 | 60 | 202 | 8.0 | 23.0 | 0.00 | 0.00 | 0.00 | 86 | 1008.0 |
| 20260506184616 | 59 | 231 | 6.0 | 22.0 | 0.00 | 0.00 | 0.00 | 86 | 1008.3 |
| 20260506184605 | 60 | 200 | 8.0 | 23.0 | 0.00 | 0.00 | 0.00 | 86 | 1008.0 |
| 20260506184505 | 60 | 199 | 8.0 | 23.0 | 0.00 | 0.00 | 0.00 | 86 | 1008.1 |
| 20260506184405 | 60 | 198 | 8.0 | 23.0 | 0.00 | 0.00 | 0.00 | 86 | 1008.1 |
| 20260506184305 | 60 | 199 | 8.0 | 23.0 | 0.00 | 0.00 | 0.00 | 86 | 1008.1 |
| 20260506184205 | 59 | 197 | 9.0 | 23.0 | 0.00 | 0.00 | 0.00 | 86 | 1008.0 |
| 20260506184105 | 59 | 195 | 8.0 | 18.0 | 0.00 | 0.00 | 0.00 | 85 | 1008.0 |
| 20260506184005 | 59 | 196 | 8.0 | 18.0 | 0.00 | 0.00 | 0.00 | 85 | 1008.1 |
| 20260506183112 | 59 | 130 | 6.0 | 25.0 | 0.00 | 0.00 | 0.00 | 85 | 1008.4 |
| 20260506182905 | 59 | 194 | 8.0 | 24.0 | 0.00 | 0.00 | 0.00 | 85 | 1008.1 |
| 20260506182805 | 59 | 195 | 7.0 | 24.0 | 0.00 | 0.00 | 0.00 | 85 | 1008.2 |
| 20260506182705 | 59 | 195 | 8.0 | 24.0 | 0.00 | 0.00 | 0.00 | 85 | 1008.2 |
| 20260506182605 | 60 | 194 | 8.0 | 24.0 | 0.00 | 0.00 | 0.00 | 85 | 1008.3 |
| 20260506182505 | 60 | 193 | 8.0 | 24.0 | 0.00 | 0.00 | 0.00 | 85 | 1008.2 |
| 20260506182405 | 60 | 191 | 7.0 | 24.0 | 0.00 | 0.00 | 0.00 | 84 | 1008.3 |
| 20260506182306 | 60 | 191 | 7.0 | 19.0 | 0.00 | 0.00 | 0.00 | 84 | 1008.3 |
| 20260506182205 | 60 | 192 | 7.0 | 19.0 | 0.00 | 0.00 | 0.00 | 84 | 1008.3 |
| 20260506182104 | 60 | 191 | 6.0 | 19.0 | 0.00 | 0.00 | 0.00 | 84 | 1008.3 |
| 20260506182005 | 60 | 192 | 7.0 | 19.0 | 0.00 | 0.00 | 0.00 | 84 | 1008.4 |
| 20260506181905 | 60 | 189 | 7.0 | 19.0 | 0.00 | 0.00 | 0.00 | 84 | 1008.3 |
| 20260506181805 | 60 | 191 | 7.0 | 19.0 | 0.00 | 0.00 | 0.00 | 84 | 1008.4 |
| 20260506181705 | 60 | 193 | 6.0 | 19.0 | 0.00 | 0.00 | 0.00 | 84 | 1008.4 |
| 20260506181613 | 59 | 153 | 6.0 | 15.0 | 0.00 | 0.00 | 0.00 | 84 | 1008.6 |
| 20260506181605 | 60 | 192 | 6.0 | 15.0 | 0.00 | 0.00 | 0.00 | 84 | 1008.5 |
| 20260506181505 | 60 | 193 | 6.0 | 15.0 | 0.00 | 0.00 | 0.00 | 84 | 1008.5 |
| 20260506181405 | 60 | 192 | 6.0 | 15.0 | 0.00 | 0.00 | 0.00 | 84 | 1008.5 |
| 20260506181305 | 60 | 193 | 6.0 | 15.0 | 0.00 | 0.00 | 0.00 | 84 | 1008.5 |
| 20260506181205 | 60 | 193 | 6.0 | 13.0 | 0.00 | 0.00 | 0.00 | 84 | 1008.5 |
| 20260506181105 | 60 | 193 | 6.0 | 16.0 | 0.00 | 0.00 | 0.00 | 84 | 1008.5 |
| 20260506181005 | 60 | 194 | 6.0 | 16.0 | 0.00 | 0.00 | 0.00 | 84 | 1008.5 |
| 20260506180905 | 60 | 196 | 6.0 | 16.0 | 0.00 | 0.00 | 0.00 | 84 | 1008.6 |
| 20260506180805 | 60 | 194 | 6.0 | 16.0 | 0.00 | 0.00 | 0.00 | 84 | 1008.6 |
| 20260506180705 | 60 | 194 | 6.0 | 16.0 | 0.00 | 0.00 | 0.00 | 83 | 1008.6 |
| 20260506180604 | 60 | 195 | 7.0 | 16.0 | 0.00 | 0.00 | 0.00 | 83 | 1008.6 |
| 20260506180505 | 60 | 193 | 7.0 | 16.0 | 0.00 | 0.00 | 0.00 | 83 | 1008.6 |
| 20260506180405 | 60 | 193 | 7.0 | 16.0 | 0.00 | 0.00 | 0.00 | 83 | 1008.6 |
| 20260506180305 | 60 | 193 | 7.0 | 16.0 | 0.00 | 0.00 | 0.00 | 83 | 1008.6 |
| 20260506180206 | 60 | 194 | 7.0 | 16.0 | 0.00 | 0.00 | 0.00 | 83 | 1008.6 |
| 20260506180105 | 60 | 194 | 7.0 | 15.0 | 0.00 | 0.00 | 0.00 | 83 | 1008.7 |
| 20260506180006 | 60 | 202 | 5.0 | 16.0 | 0.00 | 0.00 | 0.00 | 83 | 1008.9 |
| 20260506175905 | 60 | 193 | 7.0 | 15.0 | 0.00 | 0.00 | 0.00 | 83 | 1008.7 |
| 20260506175805 | 60 | 194 | 7.0 | 15.0 | 0.00 | 0.00 | 0.00 | 83 | 1008.7 |
| 20260506175705 | 60 | 191 | 7.0 | 19.0 | 0.00 | 0.00 | 0.00 | 82 | 1008.6 |
| 20260506175605 | 60 | 189 | 7.0 | 19.0 | 0.00 | 0.00 | 0.00 | 82 | 1008.6 |
| 20260506175505 | 60 | 190 | 7.0 | 19.0 | 0.00 | 0.00 | 0.00 | 82 | 1008.7 |
| 20260506175405 | 60 | 190 | 7.0 | 19.0 | 0.00 | 0.00 | 0.00 | 82 | 1008.8 |
| 20260506175306 | 60 | 191 | 7.0 | 19.0 | 0.00 | 0.00 | 0.00 | 82 | 1008.8 |
| 20260506175204 | 60 | 193 | 7.0 | 19.0 | 0.00 | 0.00 | 0.00 | 82 | 1008.8 |
| 20260506175105 | 61 | 192 | 7.0 | 19.0 | 0.00 | 0.00 | 0.00 | 81 | 1009.0 |
| 20260506175005 | 61 | 193 | 7.0 | 19.0 | 0.00 | 0.00 | 0.00 | 81 | 1009.0 |
| 20260506174905 | 61 | 193 | 7.0 | 19.0 | 0.00 | 0.00 | 0.00 | 81 | 1008.9 |
| 20260506174805 | 61 | 194 | 7.0 | 19.0 | 0.00 | 0.00 | 0.00 | 81 | 1009.0 |
| 20260506174705 | 61 | 195 | 6.0 | 16.0 | 0.00 | 0.00 | 0.00 | 81 | 1009.1 |
| 20260506174611 | 60 | 210 | 5.0 | 16.0 | 0.00 | 0.00 | 0.00 | 81 | 1009.3 |
| 20260506174605 | 61 | 196 | 6.0 | 16.0 | 0.00 | 0.00 | 0.00 | 81 | 1009.2 |
| 20260506174505 | 61 | 198 | 6.0 | 16.0 | 0.00 | 0.00 | 0.00 | 81 | 1009.2 |
| 20260506174405 | 61 | 198 | 6.0 | 16.0 | 0.00 | 0.00 | 0.00 | 81 | 1009.2 |
| 20260506174305 | 61 | 199 | 6.0 | 16.0 | 0.00 | 0.00 | 0.00 | 81 | 1009.2 |
| 20260506174205 | 61 | 196 | 6.0 | 16.0 | 0.00 | 0.00 | 0.00 | 81 | 1009.1 |
| 20260506174105 | 61 | 199 | 6.0 | 16.0 | 0.00 | 0.00 | 0.00 | 80 | 1009.2 |
| 20260506174005 | 61 | 198 | 6.0 | 16.0 | 0.00 | 0.00 | 0.00 | 80 | 1009.2 |
| 20260506173904 | 61 | 201 | 6.0 | 18.0 | 0.00 | 0.00 | 0.00 | 80 | 1009.3 |
| 20260506173805 | 61 | 200 | 6.0 | 18.0 | 0.00 | 0.00 | 0.00 | 80 | 1009.3 |
| 20260506173705 | 61 | 203 | 7.0 | 18.0 | 0.00 | 0.00 | 0.00 | 80 | 1009.3 |
| 20260506173605 | 62 | 202 | 7.0 | 18.0 | 0.00 | 0.00 | 0.00 | 79 | 1009.4 |
| 20260506173505 | 62 | 200 | 7.0 | 18.0 | 0.00 | 0.00 | 0.00 | 79 | 1009.4 |
| 20260506173405 | 62 | 199 | 7.0 | 18.0 | 0.00 | 0.00 | 0.00 | 79 | 1009.4 |
| 20260506173305 | 62 | 201 | 7.0 | 18.0 | 0.00 | 0.00 | 0.00 | 79 | 1009.4 |
| 20260506173205 | 62 | 203 | 7.0 | 18.0 | 0.00 | 0.00 | 0.00 | 79 | 1009.5 |
| 20260506173120 | 61 | 231 | 6.0 | 19.0 | 0.00 | 0.00 | 0.00 | 79 | 1009.8 |
| 20260506173105 | 62 | 201 | 7.0 | 18.0 | 0.00 | 0.00 | 0.00 | 79 | 1009.5 |
| 20260506173005 | 62 | 202 | 7.0 | 18.0 | 0.00 | 0.00 | 0.00 | 79 | 1009.5 |
| 20260506172905 | 62 | 201 | 7.0 | 17.0 | 0.00 | 0.00 | 0.00 | 79 | 1009.4 |
| 20260506172805 | 62 | 201 | 7.0 | 17.0 | 0.00 | 0.00 | 0.00 | 79 | 1009.5 |
| 20260506172705 | 62 | 203 | 7.0 | 18.0 | 0.00 | 0.00 | 0.00 | 79 | 1009.5 |
| 20260506172604 | 62 | 205 | 7.0 | 18.0 | 0.00 | 0.00 | 0.00 | 78 | 1009.5 |
| 20260506172505 | 62 | 204 | 7.0 | 18.0 | 0.00 | 0.00 | 0.00 | 78 | 1009.4 |
| 20260506172404 | 62 | 206 | 7.0 | 18.0 | 0.00 | 0.00 | 0.00 | 77 | 1009.4 |
| 20260506172307 | 62 | 205 | 7.0 | 18.0 | 0.00 | 0.00 | 0.00 | 77 | 1009.4 |
| 20260506172205 | 62 | 204 | 7.0 | 18.0 | 0.00 | 0.00 | 0.00 | 77 | 1009.5 |
| 20260506171612 | 62 | 202 | 6.0 | 21.0 | 0.00 | 0.00 | 0.00 | 77 | 1009.7 |
| 20260506171505 | 62 | 199 | 7.0 | 17.0 | 0.00 | 0.00 | 0.00 | 77 | 1009.4 |
| 20260506171405 | 63 | 198 | 7.0 | 18.0 | 0.00 | 0.00 | 0.00 | 77 | 1009.3 |
| 20260506171305 | 63 | 198 | 7.0 | 18.0 | 0.00 | 0.00 | 0.00 | 76 | 1009.4 |
| 20260506171205 | 63 | 199 | 7.0 | 18.0 | 0.00 | 0.00 | 0.00 | 76 | 1009.4 |
| 20260506171106 | 63 | 200 | 6.0 | 18.0 | 0.00 | 0.00 | 0.00 | 76 | 1009.4 |
| 20260506171005 | 63 | 199 | 6.0 | 18.0 | 0.00 | 0.00 | 0.00 | 76 | 1009.4 |
| 20260506170905 | 63 | 202 | 6.0 | 20.0 | 0.00 | 0.00 | 0.00 | 76 | 1009.4 |
| 20260506170804 | 63 | 199 | 6.0 | 20.0 | 0.00 | 0.00 | 0.00 | 76 | 1009.5 |
| 20260506170705 | 63 | 201 | 6.0 | 20.0 | 0.00 | 0.00 | 0.00 | 76 | 1009.4 |
| 20260506170605 | 63 | 204 | 7.0 | 20.0 | 0.00 | 0.00 | 0.00 | 76 | 1009.5 |
| 20260506170505 | 63 | 208 | 6.0 | 20.0 | 0.00 | 0.00 | 0.00 | 76 | 1009.6 |
| 20260506170117 | 62 | 238 | 6.0 | 19.0 | 0.00 | 0.00 | 0.00 | 76 | 1009.8 |
| 20260506165306 | 63 | 203 | 9.0 | 18.0 | 0.00 | 0.00 | 0.00 | 75 | 1009.5 |
| 20260506165204 | 63 | 206 | 8.0 | 18.0 | 0.00 | 0.00 | 0.00 | 75 | 1009.7 |
| 20260506165105 | 63 | 205 | 8.0 | 18.0 | 0.00 | 0.00 | 0.00 | 75 | 1009.7 |
| 20260506165005 | 63 | 205 | 8.0 | 18.0 | 0.00 | 0.00 | 0.00 | 75 | 1009.6 |
| 20260506164905 | 63 | 205 | 8.0 | 18.0 | 0.00 | 0.00 | 0.00 | 75 | 1009.7 |
| 20260506164805 | 63 | 205 | 7.0 | 18.0 | 0.00 | 0.00 | 0.00 | 75 | 1009.6 |
| 20260506164705 | 63 | 205 | 7.0 | 18.0 | 0.00 | 0.00 | 0.00 | 75 | 1009.6 |
| 20260506164605 | 63 | 204 | 8.0 | 18.0 | 0.00 | 0.00 | 0.00 | 75 | 1009.6 |
| 20260506164505 | 63 | 206 | 8.0 | 22.0 | 0.00 | 0.00 | 0.00 | 75 | 1009.7 |
| 20260506164404 | 63 | 207 | 9.0 | 23.0 | 0.00 | 0.00 | 0.00 | 75 | 1009.7 |
| 20260506164305 | 63 | 205 | 9.0 | 23.0 | 0.00 | 0.00 | 0.00 | 75 | 1009.6 |
| 20260506164205 | 63 | 203 | 9.0 | 25.0 | 0.00 | 0.00 | 0.00 | 75 | 1009.7 |
| 20260506164105 | 63 | 200 | 9.0 | 25.0 | 0.00 | 0.00 | 0.00 | 75 | 1009.6 |
| 20260506164005 | 63 | 202 | 9.0 | 25.0 | 0.00 | 0.00 | 0.00 | 75 | 1009.7 |
| 20260506163905 | 63 | 203 | 9.0 | 25.0 | 0.00 | 0.00 | 0.00 | 75 | 1009.8 |
| 20260506163805 | 63 | 204 | 9.0 | 25.0 | 0.00 | 0.00 | 0.00 | 75 | 1009.8 |
| 20260506163705 | 63 | 203 | 9.0 | 25.0 | 0.00 | 0.00 | 0.00 | 75 | 1009.8 |
| 20260506163605 | 63 | 204 | 8.0 | 25.0 | 0.00 | 0.00 | 0.00 | 75 | 1009.8 |
| 20260506163505 | 63 | 205 | 7.0 | 25.0 | 0.00 | 0.00 | 0.00 | 75 | 1009.8 |
| 20260506163405 | 63 | 203 | 7.0 | 25.0 | 0.00 | 0.00 | 0.00 | 75 | 1009.8 |
| 20260506163305 | 63 | 203 | 7.0 | 25.0 | 0.00 | 0.00 | 0.00 | 75 | 1009.9 |
| 20260506163205 | 63 | 206 | 7.0 | 19.0 | 0.00 | 0.00 | 0.00 | 74 | 1009.8 |
| 20260506163141 | 63 | 208 | 7.0 | 19.0 | 0.00 | 0.00 | 0.00 | 74 | 1010.0 |
| 20260506163104 | 63 | 206 | 7.0 | 19.0 | 0.00 | 0.00 | 0.00 | 74 | 1009.8 |
| 20260506163005 | 63 | 202 | 7.0 | 24.0 | 0.00 | 0.00 | 0.00 | 74 | 1009.8 |
| 20260506162905 | 63 | 202 | 7.0 | 24.0 | 0.00 | 0.00 | 0.00 | 74 | 1009.7 |
| 20260506162805 | 63 | 201 | 7.0 | 24.0 | 0.00 | 0.00 | 0.00 | 74 | 1009.7 |
| 20260506162705 | 63 | 203 | 8.0 | 24.0 | 0.00 | 0.00 | 0.00 | 74 | 1009.7 |
| 20260506162604 | 63 | 203 | 7.0 | 24.0 | 0.00 | 0.00 | 0.00 | 74 | 1009.8 |
| 20260506162505 | 63 | 200 | 8.0 | 24.0 | 0.00 | 0.00 | 0.00 | 74 | 1009.8 |
| 20260506162405 | 63 | 202 | 8.0 | 24.0 | 0.00 | 0.00 | 0.00 | 74 | 1009.8 |
| 20260506162307 | 63 | 201 | 8.0 | 24.0 | 0.00 | 0.00 | 0.00 | 74 | 1009.8 |
| 20260506162205 | 63 | 200 | 7.0 | 24.0 | 0.00 | 0.00 | 0.00 | 74 | 1009.8 |
| 20260506162105 | 64 | 203 | 7.0 | 24.0 | 0.00 | 0.00 | 0.00 | 74 | 1009.8 |
| 20260506162005 | 64 | 205 | 6.0 | 18.0 | 0.00 | 0.00 | 0.00 | 74 | 1009.9 |
| 20260506161905 | 64 | 202 | 7.0 | 16.0 | 0.00 | 0.00 | 0.00 | 74 | 1009.8 |
| 20260506161805 | 64 | 202 | 7.0 | 17.0 | 0.00 | 0.00 | 0.00 | 74 | 1009.8 |
| 20260506161705 | 64 | 203 | 6.0 | 17.0 | 0.00 | 0.00 | 0.00 | 74 | 1009.8 |
| 20260506161619 | 63 | 196 | 6.0 | 17.0 | 0.00 | 0.00 | 0.00 | 74 | 1010.0 |
| 20260506161105 | 64 | 200 | 8.0 | 20.0 | 0.00 | 0.00 | 0.00 | 74 | 1009.7 |
| 20260506161005 | 64 | 200 | 8.0 | 20.0 | 0.00 | 0.00 | 0.00 | 74 | 1009.8 |
| 20260506160905 | 64 | 200 | 8.0 | 20.0 | 0.00 | 0.00 | 0.00 | 74 | 1009.9 |
| 20260506160805 | 64 | 201 | 8.0 | 20.0 | 0.00 | 0.00 | 0.00 | 74 | 1010.0 |
| 20260506160705 | 64 | 200 | 8.0 | 20.0 | 0.00 | 0.00 | 0.00 | 74 | 1009.9 |
| 20260506160605 | 64 | 200 | 8.0 | 21.0 | 0.00 | 0.00 | 0.00 | 74 | 1009.9 |
| 20260506160504 | 64 | 200 | 8.0 | 21.0 | 0.00 | 0.00 | 0.00 | 74 | 1009.9 |
| 20260506160405 | 64 | 200 | 8.0 | 21.0 | 0.00 | 0.00 | 0.00 | 74 | 1009.8 |
| 20260506160305 | 64 | 202 | 8.0 | 21.0 | 0.00 | 0.00 | 0.00 | 74 | 1009.9 |
| 20260506160205 | 64 | 202 | 8.0 | 21.0 | 0.00 | 0.00 | 0.00 | 74 | 1009.9 |
| 20260506160112 | 63 | 148 | 5.0 | 20.0 | 0.00 | 0.00 | 0.00 | 74 | 1010.2 |
| 20260506160105 | 64 | 201 | 8.0 | 21.0 | 0.00 | 0.00 | 0.00 | 74 | 1009.9 |
| 20260506155504 | 64 | 197 | 7.0 | 20.0 | 0.00 | 0.00 | 0.00 | 75 | 1010.0 |
| 20260506155405 | 64 | 197 | 7.0 | 16.0 | 0.00 | 0.00 | 0.00 | 75 | 1010.1 |
| 20260506155306 | 64 | 196 | 7.0 | 16.0 | 0.00 | 0.00 | 0.00 | 75 | 1010.1 |
| 20260506155205 | 64 | 196 | 7.0 | 18.0 | 0.00 | 0.00 | 0.00 | 75 | 1010.1 |
| 20260506155105 | 64 | 197 | 7.0 | 18.0 | 0.00 | 0.00 | 0.00 | 75 | 1010.2 |
| 20260506155005 | 64 | 198 | 8.0 | 18.0 | 0.00 | 0.00 | 0.00 | 75 | 1010.2 |
| 20260506154905 | 64 | 199 | 9.0 | 20.0 | 0.00 | 0.00 | 0.00 | 75 | 1010.4 |
| 20260506154805 | 64 | 199 | 9.0 | 20.0 | 0.00 | 0.00 | 0.00 | 75 | 1010.2 |
| 20260506154705 | 64 | 200 | 9.0 | 21.0 | 0.00 | 0.00 | 0.00 | 75 | 1010.3 |
| 20260506154617 | 63 | 220 | 8.0 | 21.0 | 0.00 | 0.00 | 0.00 | 75 | 1010.5 |
| 20260506154604 | 64 | 201 | 8.0 | 21.0 | 0.00 | 0.00 | 0.00 | 75 | 1010.1 |
| 20260506154505 | 64 | 201 | 8.0 | 21.0 | 0.00 | 0.00 | 0.00 | 75 | 1010.3 |
| 20260506154404 | 64 | 201 | 8.0 | 21.0 | 0.00 | 0.00 | 0.00 | 75 | 1010.3 |
| 20260506154305 | 63 | 205 | 8.0 | 21.0 | 0.00 | 0.00 | 0.00 | 75 | 1010.3 |
| 20260506154205 | 63 | 206 | 7.0 | 21.0 | 0.00 | 0.00 | 0.00 | 75 | 1010.4 |
| 20260506154104 | 63 | 204 | 8.0 | 21.0 | 0.00 | 0.00 | 0.00 | 75 | 1010.4 |
| 20260506154005 | 63 | 201 | 7.0 | 21.0 | 0.00 | 0.00 | 0.00 | 75 | 1010.4 |
| 20260506153905 | 63 | 201 | 7.0 | 21.0 | 0.00 | 0.00 | 0.00 | 75 | 1010.5 |
| 20260506153804 | 63 | 202 | 7.0 | 21.0 | 0.00 | 0.00 | 0.00 | 75 | 1010.4 |
| 20260506153704 | 63 | 200 | 7.0 | 18.0 | 0.00 | 0.00 | 0.00 | 75 | 1010.5 |
| 20260506153605 | 63 | 199 | 7.0 | 18.0 | 0.00 | 0.00 | 0.00 | 75 | 1010.4 |
| 20260506153505 | 63 | 200 | 7.0 | 20.0 | 0.00 | 0.00 | 0.00 | 75 | 1010.4 |
| 20260506153405 | 63 | 201 | 7.0 | 20.0 | 0.00 | 0.00 | 0.00 | 75 | 1010.4 |
| 20260506153305 | 63 | 198 | 7.0 | 20.0 | 0.00 | 0.00 | 0.00 | 75 | 1010.3 |
| 20260506153205 | 63 | 196 | 7.0 | 20.0 | 0.00 | 0.00 | 0.00 | 75 | 1010.4 |
| 20260506153137 | 63 | 182 | 7.0 | 20.0 | 0.00 | 0.00 | 0.00 | 75 | 1010.6 |
| 20260506153105 | 63 | 196 | 7.0 | 20.0 | 0.00 | 0.00 | 0.00 | 75 | 1010.4 |
| 20260506153005 | 63 | 199 | 7.0 | 20.0 | 0.00 | 0.00 | 0.00 | 76 | 1010.4 |
| 20260506152905 | 63 | 197 | 6.0 | 20.0 | 0.00 | 0.00 | 0.00 | 76 | 1010.4 |
| 20260506152805 | 63 | 197 | 6.0 | 20.0 | 0.00 | 0.00 | 0.00 | 76 | 1010.3 |
| 20260506152705 | 63 | 199 | 6.0 | 20.0 | 0.00 | 0.00 | 0.00 | 76 | 1010.3 |
| 20260506152605 | 63 | 200 | 6.0 | 20.0 | 0.00 | 0.00 | 0.00 | 76 | 1010.2 |
| 20260506152505 | 63 | 201 | 6.0 | 18.0 | 0.00 | 0.00 | 0.00 | 76 | 1010.3 |
| 20260506152405 | 63 | 201 | 6.0 | 18.0 | 0.00 | 0.00 | 0.00 | 76 | 1010.2 |
| 20260506152306 | 63 | 204 | 6.0 | 16.0 | 0.00 | 0.00 | 0.00 | 76 | 1010.2 |
| 20260506152205 | 63 | 205 | 7.0 | 17.0 | 0.00 | 0.00 | 0.00 | 76 | 1010.2 |
| 20260506152105 | 63 | 207 | 7.0 | 17.0 | 0.00 | 0.00 | 0.00 | 76 | 1010.3 |
| 20260506152005 | 63 | 206 | 7.0 | 19.0 | 0.00 | 0.00 | 0.00 | 76 | 1010.3 |
| 20260506151905 | 63 | 210 | 8.0 | 19.0 | 0.00 | 0.00 | 0.00 | 76 | 1010.2 |
| 20260506151805 | 63 | 210 | 8.0 | 19.0 | 0.00 | 0.00 | 0.00 | 76 | 1010.1 |
| 20260506151705 | 63 | 208 | 9.0 | 19.0 | 0.00 | 0.00 | 0.00 | 75 | 1010.2 |
| 20260506151614 | 62 | 212 | 6.0 | 19.0 | 0.00 | 0.00 | 0.00 | 76 | 1010.5 |
| 20260506151605 | 63 | 206 | 9.0 | 23.0 | 0.00 | 0.00 | 0.00 | 76 | 1010.3 |
| 20260506151505 | 63 | 207 | 9.0 | 23.0 | 0.00 | 0.00 | 0.00 | 75 | 1010.2 |
| 20260506151405 | 63 | 205 | 10.0 | 23.0 | 0.00 | 0.00 | 0.00 | 75 | 1010.3 |
| 20260506151304 | 63 | 203 | 10.0 | 23.0 | 0.00 | 0.00 | 0.00 | 75 | 1010.2 |
| 20260506151205 | 63 | 204 | 10.0 | 23.0 | 0.00 | 0.00 | 0.00 | 75 | 1010.3 |
| 20260506151105 | 63 | 203 | 10.0 | 24.0 | 0.00 | 0.00 | 0.00 | 75 | 1010.2 |
| 20260506151005 | 63 | 204 | 10.0 | 24.0 | 0.00 | 0.00 | 0.00 | 75 | 1010.2 |
| 20260506150905 | 63 | 202 | 11.0 | 24.0 | 0.00 | 0.00 | 0.00 | 75 | 1010.1 |
| 20260506150804 | 63 | 199 | 10.0 | 26.0 | 0.00 | 0.00 | 0.00 | 75 | 1010.2 |
| 20260506150704 | 63 | 197 | 9.0 | 26.0 | 0.00 | 0.00 | 0.00 | 75 | 1010.1 |
| 20260506150605 | 63 | 196 | 9.0 | 26.0 | 0.00 | 0.00 | 0.00 | 75 | 1010.1 |
| 20260506150505 | 63 | 195 | 9.0 | 26.0 | 0.00 | 0.00 | 0.00 | 75 | 1010.1 |
| 20260506150405 | 63 | 197 | 9.0 | 26.0 | 0.00 | 0.00 | 0.00 | 75 | 1010.2 |
| 20260506150305 | 63 | 200 | 9.0 | 26.0 | 0.00 | 0.00 | 0.00 | 75 | 1010.1 |
| 20260506150205 | 63 | 202 | 9.0 | 26.0 | 0.00 | 0.00 | 0.00 | 75 | 1010.1 |
| 20260506150106 | 63 | 165 | 10.0 | 27.0 | 0.00 | 0.00 | 0.00 | 75 | 1010.3 |
| 20260506150104 | 63 | 201 | 9.0 | 26.0 | 0.00 | 0.00 | 0.00 | 75 | 1010.1 |
| 20260506150005 | 63 | 200 | 9.0 | 26.0 | 0.00 | 0.00 | 0.00 | 75 | 1010.2 |
| 20260506145905 | 63 | 200 | 10.0 | 30.0 | 0.00 | 0.00 | 0.00 | 75 | 1010.4 |
| 20260506145804 | 63 | 201 | 11.0 | 30.0 | 0.00 | 0.00 | 0.00 | 75 | 1010.4 |
| 20260506145705 | 63 | 203 | 12.0 | 30.0 | 0.00 | 0.00 | 0.00 | 75 | 1010.4 |
| 20260506145604 | 63 | 203 | 12.0 | 30.0 | 0.00 | 0.00 | 0.00 | 75 | 1010.4 |
| 20260506145504 | 63 | 202 | 12.0 | 30.0 | 0.00 | 0.00 | 0.00 | 75 | 1010.5 |
| 20260506145405 | 63 | 201 | 12.0 | 30.0 | 0.00 | 0.00 | 0.00 | 74 | 1010.4 |
| 20260506145306 | 63 | 199 | 12.0 | 30.0 | 0.00 | 0.00 | 0.00 | 75 | 1010.3 |
| 20260506145205 | 63 | 197 | 12.0 | 30.0 | 0.00 | 0.00 | 0.00 | 75 | 1010.4 |
| 20260506145105 | 63 | 198 | 12.0 | 30.0 | 0.00 | 0.00 | 0.00 | 75 | 1010.2 |
| 20260506145005 | 63 | 198 | 11.0 | 30.0 | 0.00 | 0.00 | 0.00 | 74 | 1010.3 |
| 20260506144905 | 64 | 199 | 10.0 | 28.0 | 0.00 | 0.00 | 0.00 | 75 | 1010.2 |
| 20260506144805 | 64 | 199 | 10.0 | 28.0 | 0.00 | 0.00 | 0.00 | 75 | 1010.3 |
| 20260506144705 | 64 | 199 | 9.0 | 28.0 | 0.00 | 0.00 | 0.00 | 75 | 1010.2 |
| 20260506144614 | 63 | 154 | 10.0 | 25.0 | 0.00 | 0.00 | 0.00 | 75 | 1010.5 |
| 20260506144605 | 64 | 199 | 9.0 | 25.0 | 0.00 | 0.00 | 0.00 | 75 | 1010.3 |
| 20260506144504 | 64 | 201 | 9.0 | 25.0 | 0.00 | 0.00 | 0.00 | 75 | 1010.3 |
| 20260506144405 | 64 | 201 | 9.0 | 25.0 | 0.00 | 0.00 | 0.00 | 75 | 1010.1 |
| 20260506144305 | 64 | 205 | 9.0 | 20.0 | 0.00 | 0.00 | 0.00 | 75 | 1010.2 |
| 20260506144205 | 63 | 205 | 9.0 | 20.0 | 0.00 | 0.00 | 0.00 | 75 | 1010.2 |
| 20260506144105 | 63 | 206 | 9.0 | 24.0 | 0.00 | 0.00 | 0.00 | 75 | 1010.1 |
| 20260506144004 | 63 | 208 | 10.0 | 24.0 | 0.00 | 0.00 | 0.00 | 75 | 1010.2 |
| 20260506143905 | 63 | 209 | 10.0 | 24.0 | 0.00 | 0.00 | 0.00 | 75 | 1010.2 |
| 20260506143805 | 63 | 209 | 10.0 | 24.0 | 0.00 | 0.00 | 0.00 | 75 | 1010.2 |
| 20260506143705 | 63 | 209 | 10.0 | 24.0 | 0.00 | 0.00 | 0.00 | 75 | 1010.2 |
| 20260506143604 | 63 | 211 | 10.0 | 24.0 | 0.00 | 0.00 | 0.00 | 76 | 1010.3 |
| 20260506143505 | 63 | 210 | 10.0 | 24.0 | 0.00 | 0.00 | 0.00 | 76 | 1010.3 |
| 20260506143405 | 63 | 210 | 10.0 | 24.0 | 0.00 | 0.00 | 0.00 | 76 | 1010.2 |
| 20260506143306 | 63 | 209 | 10.0 | 24.0 | 0.00 | 0.00 | 0.00 | 76 | 1010.2 |
| 20260506143205 | 63 | 209 | 10.0 | 24.0 | 0.00 | 0.00 | 0.00 | 76 | 1010.4 |
| 20260506143105 | 63 | 217 | 11.0 | 23.0 | 0.00 | 0.00 | 0.00 | 76 | 1010.6 |
| 20260506143005 | 63 | 205 | 10.0 | 25.0 | 0.00 | 0.00 | 0.00 | 76 | 1010.2 |
| 20260506142905 | 63 | 205 | 10.0 | 25.0 | 0.00 | 0.00 | 0.00 | 76 | 1010.3 |
| 20260506142805 | 63 | 205 | 10.0 | 25.0 | 0.00 | 0.00 | 0.00 | 76 | 1010.3 |
| 20260506142705 | 63 | 204 | 10.0 | 25.0 | 0.00 | 0.00 | 0.00 | 76 | 1010.2 |
| 20260506142605 | 63 | 201 | 10.0 | 25.0 | 0.00 | 0.00 | 0.00 | 76 | 1010.3 |
| 20260506142504 | 63 | 201 | 10.0 | 25.0 | 0.00 | 0.00 | 0.00 | 76 | 1010.3 |
| 20260506142405 | 63 | 201 | 10.0 | 25.0 | 0.00 | 0.00 | 0.00 | 76 | 1010.3 |
| 20260506142306 | 63 | 204 | 10.0 | 25.0 | 0.00 | 0.00 | 0.00 | 76 | 1010.4 |
| 20260506141612 | 62 | 198 | 9.0 | 26.0 | 0.00 | 0.00 | 0.00 | 76 | 1010.8 |
| 20260506141604 | 63 | 210 | 10.0 | 27.0 | 0.00 | 0.00 | 0.00 | 76 | 1010.6 |
| 20260506141504 | 63 | 210 | 11.0 | 27.0 | 0.00 | 0.00 | 0.00 | 76 | 1010.7 |
| 20260506141404 | 63 | 209 | 11.0 | 27.0 | 0.00 | 0.00 | 0.00 | 76 | 1010.6 |
| 20260506141305 | 63 | 206 | 10.0 | 27.0 | 0.00 | 0.00 | 0.00 | 76 | 1010.7 |
| 20260506141204 | 63 | 207 | 10.0 | 27.0 | 0.00 | 0.00 | 0.00 | 76 | 1010.7 |
| 20260506141105 | 62 | 208 | 10.0 | 27.0 | 0.00 | 0.00 | 0.00 | 76 | 1010.7 |
| 20260506141005 | 62 | 207 | 10.0 | 23.0 | 0.00 | 0.00 | 0.00 | 76 | 1010.6 |
| 20260506140905 | 62 | 206 | 10.0 | 23.0 | 0.00 | 0.00 | 0.00 | 76 | 1010.6 |
| 20260506140805 | 62 | 208 | 10.0 | 23.0 | 0.00 | 0.00 | 0.00 | 76 | 1010.6 |
| 20260506140705 | 62 | 208 | 10.0 | 23.0 | 0.00 | 0.00 | 0.00 | 76 | 1010.7 |
| 20260506140604 | 62 | 210 | 10.0 | 23.0 | 0.00 | 0.00 | 0.00 | 76 | 1010.6 |
| 20260506140505 | 62 | 210 | 10.0 | 23.0 | 0.00 | 0.00 | 0.00 | 76 | 1010.7 |
| 20260506140405 | 62 | 212 | 10.0 | 24.0 | 0.00 | 0.00 | 0.00 | 76 | 1010.7 |
| 20260506140305 | 62 | 214 | 10.0 | 24.0 | 0.00 | 0.00 | 0.00 | 76 | 1010.7 |
| 20260506140204 | 63 | 214 | 10.0 | 24.0 | 0.00 | 0.00 | 0.00 | 76 | 1010.7 |
| 20260506140105 | 63 | 213 | 11.0 | 24.0 | 0.00 | 0.00 | 0.00 | 76 | 1010.7 |
| 20260506140010 | 62 | 116 | 11.0 | 23.0 | 0.00 | 0.00 | 0.00 | 76 | 1010.8 |
| 20260506140005 | 63 | 212 | 11.0 | 27.0 | 0.00 | 0.00 | 0.00 | 76 | 1010.6 |
| 20260506135905 | 63 | 214 | 11.0 | 34.0 | 0.00 | 0.00 | 0.00 | 76 | 1010.6 |
| 20260506135805 | 63 | 214 | 11.0 | 34.0 | 0.00 | 0.00 | 0.00 | 76 | 1010.5 |
| 20260506135704 | 63 | 216 | 11.0 | 34.0 | 0.00 | 0.00 | 0.00 | 76 | 1010.5 |
| 20260506135605 | 63 | 215 | 11.0 | 34.0 | 0.00 | 0.00 | 0.00 | 76 | 1010.4 |
| 20260506135505 | 63 | 214 | 11.0 | 34.0 | 0.00 | 0.00 | 0.00 | 76 | 1010.7 |
| 20260506135404 | 63 | 214 | 11.0 | 34.0 | 0.00 | 0.00 | 0.00 | 76 | 1010.6 |
| 20260506135306 | 63 | 213 | 11.0 | 34.0 | 0.00 | 0.00 | 0.00 | 76 | 1010.5 |
| 20260506135204 | 63 | 212 | 11.0 | 34.0 | 0.00 | 0.00 | 0.00 | 75 | 1010.6 |
| 20260506135105 | 63 | 212 | 10.0 | 34.0 | 0.00 | 0.00 | 0.00 | 75 | 1010.5 |
| 20260506135005 | 63 | 212 | 10.0 | 34.0 | 0.00 | 0.00 | 0.00 | 75 | 1010.6 |
| 20260506134905 | 63 | 210 | 10.0 | 26.0 | 0.00 | 0.00 | 0.00 | 76 | 1010.5 |
| 20260506134804 | 63 | 209 | 10.0 | 28.0 | 0.00 | 0.00 | 0.00 | 76 | 1010.4 |
| 20260506134705 | 63 | 207 | 9.0 | 28.0 | 0.00 | 0.00 | 0.00 | 75 | 1010.5 |
| 20260506134610 | 62 | 244 | 10.0 | 27.0 | 0.00 | 0.00 | 0.00 | 76 | 1010.7 |
| 20260506134605 | 63 | 204 | 10.0 | 28.0 | 0.00 | 0.00 | 0.00 | 76 | 1010.4 |
| 20260506134505 | 63 | 204 | 9.0 | 28.0 | 0.00 | 0.00 | 0.00 | 76 | 1010.5 |
| 20260506134405 | 63 | 204 | 9.0 | 28.0 | 0.00 | 0.00 | 0.00 | 76 | 1010.5 |
| 20260506134305 | 63 | 205 | 9.0 | 28.0 | 0.00 | 0.00 | 0.00 | 76 | 1010.4 |
| 20260506134205 | 63 | 207 | 9.0 | 28.0 | 0.00 | 0.00 | 0.00 | 76 | 1010.5 |
| 20260506134105 | 63 | 206 | 9.0 | 28.0 | 0.00 | 0.00 | 0.00 | 76 | 1010.4 |
| 20260506134005 | 63 | 205 | 9.0 | 28.0 | 0.00 | 0.00 | 0.00 | 76 | 1010.5 |
| 20260506133905 | 63 | 204 | 9.0 | 28.0 | 0.00 | 0.00 | 0.00 | 76 | 1010.4 |
| 20260506133805 | 63 | 201 | 9.0 | 23.0 | 0.00 | 0.00 | 0.00 | 76 | 1010.4 |
| 20260506133705 | 63 | 199 | 9.0 | 23.0 | 0.00 | 0.00 | 0.00 | 76 | 1010.4 |
| 20260506133605 | 63 | 204 | 9.0 | 23.0 | 0.00 | 0.00 | 0.00 | 76 | 1010.4 |
| 20260506133505 | 63 | 204 | 8.0 | 23.0 | 0.00 | 0.00 | 0.00 | 76 | 1010.4 |
| 20260506133405 | 63 | 204 | 8.0 | 23.0 | 0.00 | 0.00 | 0.00 | 76 | 1010.4 |
| 20260506133305 | 63 | 202 | 8.0 | 23.0 | 0.00 | 0.00 | 0.00 | 76 | 1010.4 |
| 20260506133205 | 63 | 200 | 8.0 | 23.0 | 0.00 | 0.00 | 0.00 | 76 | 1010.4 |
| 20260506133119 | 62 | 190 | 8.0 | 22.0 | 0.00 | 0.00 | 0.00 | 76 | 1010.6 |
| 20260506133105 | 63 | 203 | 8.0 | 19.0 | 0.00 | 0.00 | 0.00 | 76 | 1010.3 |
| 20260506133005 | 63 | 204 | 9.0 | 19.0 | 0.00 | 0.00 | 0.00 | 76 | 1010.3 |
| 20260506132905 | 63 | 205 | 9.0 | 19.0 | 0.00 | 0.00 | 0.00 | 76 | 1010.2 |
| 20260506132804 | 63 | 208 | 8.0 | 21.0 | 0.00 | 0.00 | 0.00 | 76 | 1010.3 |
| 20260506132705 | 63 | 210 | 8.0 | 21.0 | 0.00 | 0.00 | 0.00 | 76 | 1010.4 |
| 20260506132605 | 63 | 207 | 8.0 | 21.0 | 0.00 | 0.00 | 0.00 | 76 | 1010.3 |
| 20260506132505 | 63 | 209 | 9.0 | 21.0 | 0.00 | 0.00 | 0.00 | 76 | 1010.4 |
| 20260506132405 | 63 | 209 | 9.0 | 21.0 | 0.00 | 0.00 | 0.00 | 76 | 1010.3 |
| 20260506132307 | 63 | 212 | 9.0 | 21.0 | 0.00 | 0.00 | 0.00 | 76 | 1010.4 |
| 20260506132204 | 63 | 211 | 9.0 | 27.0 | 0.00 | 0.00 | 0.00 | 76 | 1010.4 |
| 20260506132105 | 63 | 208 | 9.0 | 27.0 | 0.00 | 0.00 | 0.00 | 76 | 1010.5 |
| 20260506132005 | 63 | 207 | 9.0 | 27.0 | 0.00 | 0.00 | 0.00 | 76 | 1010.4 |
| 20260506131904 | 63 | 207 | 10.0 | 27.0 | 0.00 | 0.00 | 0.00 | 76 | 1010.4 |
| 20260506131610 | 62 | 188 | 8.0 | 27.0 | 0.00 | 0.00 | 0.00 | 76 | 1010.6 |
| 20260506131205 | 63 | 203 | 10.0 | 26.0 | 0.00 | 0.00 | 0.00 | 76 | 1010.2 |
| 20260506131105 | 63 | 202 | 9.0 | 22.0 | 0.00 | 0.00 | 0.00 | 76 | 1010.3 |
| 20260506131005 | 63 | 204 | 10.0 | 22.0 | 0.00 | 0.00 | 0.00 | 76 | 1010.1 |
| 20260506130905 | 63 | 205 | 9.0 | 22.0 | 0.00 | 0.00 | 0.00 | 77 | 1010.2 |
| 20260506130805 | 62 | 202 | 10.0 | 22.0 | 0.00 | 0.00 | 0.00 | 77 | 1010.3 |
| 20260506130705 | 62 | 200 | 10.0 | 26.0 | 0.00 | 0.00 | 0.00 | 77 | 1010.3 |
| 20260506130605 | 62 | 199 | 10.0 | 26.0 | 0.00 | 0.00 | 0.00 | 77 | 1010.3 |
| 20260506130505 | 62 | 201 | 11.0 | 26.0 | 0.00 | 0.00 | 0.00 | 77 | 1010.3 |
| 20260506130405 | 62 | 200 | 11.0 | 26.0 | 0.00 | 0.00 | 0.00 | 77 | 1010.3 |
| 20260506130305 | 62 | 200 | 11.0 | 29.0 | 0.00 | 0.00 | 0.00 | 77 | 1010.4 |
| 20260506130205 | 62 | 201 | 11.0 | 29.0 | 0.00 | 0.00 | 0.00 | 77 | 1010.4 |
| 20260506130121 | 62 | 231 | 10.0 | 29.0 | 0.00 | 0.00 | 0.00 | 77 | 1010.7 |
| 20260506130105 | 62 | 203 | 11.0 | 29.0 | 0.00 | 0.00 | 0.00 | 77 | 1010.6 |
| 20260506130005 | 62 | 203 | 11.0 | 29.0 | 0.00 | 0.00 | 0.00 | 77 | 1010.6 |
| 20260506125904 | 62 | 202 | 11.0 | 29.0 | 0.00 | 0.00 | 0.00 | 77 | 1010.6 |
| 20260506125805 | 62 | 204 | 11.0 | 29.0 | 0.00 | 0.00 | 0.00 | 77 | 1010.7 |
| 20260506125705 | 62 | 207 | 11.0 | 29.0 | 0.00 | 0.00 | 0.00 | 77 | 1010.6 |
| 20260506125604 | 62 | 207 | 11.0 | 29.0 | 0.00 | 0.00 | 0.00 | 77 | 1010.5 |
| 20260506125506 | 62 | 206 | 11.0 | 29.0 | 0.00 | 0.00 | 0.00 | 77 | 1010.6 |
| 20260506125405 | 62 | 206 | 11.0 | 29.0 | 0.00 | 0.00 | 0.00 | 77 | 1010.6 |
| 20260506125306 | 62 | 207 | 11.0 | 26.0 | 0.00 | 0.00 | 0.00 | 77 | 1010.6 |
| 20260506125205 | 62 | 207 | 11.0 | 26.0 | 0.00 | 0.00 | 0.00 | 77 | 1010.7 |
| 20260506125105 | 62 | 206 | 11.0 | 26.0 | 0.00 | 0.00 | 0.00 | 77 | 1010.8 |
| 20260506125005 | 62 | 206 | 10.0 | 26.0 | 0.00 | 0.00 | 0.00 | 77 | 1010.8 |
| 20260506124905 | 62 | 206 | 10.0 | 26.0 | 0.00 | 0.00 | 0.00 | 77 | 1010.7 |
| 20260506124804 | 62 | 209 | 10.0 | 26.0 | 0.00 | 0.00 | 0.00 | 78 | 1010.7 |
| 20260506124705 | 62 | 206 | 9.0 | 25.0 | 0.00 | 0.00 | 0.00 | 78 | 1010.7 |
| 20260506124612 | 62 | 253 | 7.0 | 24.0 | 0.00 | 0.00 | 0.00 | 78 | 1011.0 |
| 20260506124605 | 62 | 207 | 9.0 | 25.0 | 0.00 | 0.00 | 0.00 | 78 | 1010.7 |
| 20260506124504 | 62 | 209 | 10.0 | 25.0 | 0.00 | 0.00 | 0.00 | 78 | 1010.7 |
| 20260506124404 | 62 | 213 | 9.0 | 25.0 | 0.00 | 0.00 | 0.00 | 78 | 1010.8 |
| 20260506124305 | 62 | 214 | 9.0 | 25.0 | 0.00 | 0.00 | 0.00 | 78 | 1010.6 |
| 20260506124204 | 62 | 216 | 9.0 | 25.0 | 0.00 | 0.00 | 0.00 | 78 | 1010.8 |
| 20260506124105 | 62 | 216 | 10.0 | 25.0 | 0.00 | 0.00 | 0.00 | 79 | 1010.7 |
| 20260506124005 | 62 | 216 | 10.0 | 27.0 | 0.00 | 0.00 | 0.00 | 78 | 1011.0 |
| 20260506123905 | 62 | 217 | 10.0 | 27.0 | 0.00 | 0.00 | 0.00 | 78 | 1010.9 |
| 20260506123805 | 62 | 213 | 9.0 | 27.0 | 0.00 | 0.00 | 0.00 | 78 | 1010.9 |
| 20260506123705 | 62 | 213 | 10.0 | 27.0 | 0.00 | 0.00 | 0.00 | 78 | 1010.9 |
| 20260506123605 | 62 | 215 | 10.0 | 27.0 | 0.00 | 0.00 | 0.00 | 78 | 1011.0 |
| 20260506123505 | 61 | 215 | 10.0 | 27.0 | 0.00 | 0.00 | 0.00 | 78 | 1010.9 |
| 20260506123008 | 61 | 194 | 10.0 | 27.0 | 0.00 | 0.00 | 0.00 | 79 | 1011.2 |
| 20260506122404 | 61 | 208 | 10.0 | 27.0 | 0.00 | 0.00 | 0.00 | 79 | 1010.7 |
| 20260506122306 | 61 | 208 | 10.0 | 24.0 | 0.00 | 0.00 | 0.00 | 79 | 1010.8 |
| 20260506122204 | 61 | 209 | 9.0 | 24.0 | 0.00 | 0.00 | 0.00 | 79 | 1010.8 |
| 20260506122105 | 61 | 210 | 9.0 | 24.0 | 0.00 | 0.00 | 0.00 | 79 | 1010.8 |
| 20260506122004 | 61 | 213 | 9.0 | 24.0 | 0.00 | 0.00 | 0.00 | 80 | 1010.7 |
| 20260506121905 | 61 | 212 | 9.0 | 24.0 | 0.00 | 0.00 | 0.00 | 80 | 1010.8 |
| 20260506121805 | 61 | 215 | 9.0 | 24.0 | 0.00 | 0.00 | 0.00 | 80 | 1010.9 |
| 20260506121705 | 61 | 212 | 9.0 | 24.0 | 0.00 | 0.00 | 0.00 | 80 | 1010.8 |
| 20260506121615 | 60 | 225 | 10.0 | 25.0 | 0.00 | 0.00 | 0.00 | 80 | 1011.0 |
| 20260506121604 | 61 | 214 | 9.0 | 24.0 | 0.00 | 0.00 | 0.00 | 80 | 1010.8 |
| 20260506121505 | 61 | 214 | 8.0 | 24.0 | 0.00 | 0.00 | 0.00 | 80 | 1010.9 |
| 20260506121405 | 61 | 216 | 9.0 | 24.0 | 0.00 | 0.00 | 0.00 | 80 | 1010.9 |
| 20260506121304 | 61 | 216 | 9.0 | 24.0 | 0.00 | 0.00 | 0.00 | 80 | 1010.9 |
| 20260506121204 | 60 | 214 | 9.0 | 24.0 | 0.00 | 0.00 | 0.00 | 80 | 1010.8 |
| 20260506121105 | 60 | 213 | 9.0 | 24.0 | 0.00 | 0.00 | 0.00 | 80 | 1010.8 |
| 20260506121004 | 60 | 214 | 9.0 | 24.0 | 0.00 | 0.00 | 0.00 | 80 | 1010.8 |
| 20260506120905 | 60 | 211 | 9.0 | 24.0 | 0.00 | 0.00 | 0.00 | 80 | 1010.9 |
| 20260506120304 | 60 | 208 | 10.0 | 21.0 | 0.00 | 0.00 | 0.00 | 81 | 1010.7 |
| 20260506120205 | 60 | 209 | 9.0 | 21.0 | 0.00 | 0.00 | 0.00 | 81 | 1010.8 |
| 20260506120105 | 60 | 210 | 10.0 | 21.0 | 0.00 | 0.00 | 0.00 | 81 | 1010.7 |
| 20260506120010 | 60 | 223 | 10.0 | 21.0 | 0.00 | 0.00 | 0.00 | 81 | 1010.9 |
| 20260506120005 | 60 | 209 | 9.0 | 21.0 | 0.00 | 0.00 | 0.00 | 81 | 1010.7 |
| 20260506115905 | 60 | 211 | 9.0 | 21.0 | 0.00 | 0.00 | 0.00 | 81 | 1010.6 |
| 20260506115307 | 60 | 213 | 8.0 | 21.0 | 0.00 | 0.00 | 0.00 | 81 | 1010.7 |
| 20260506115205 | 60 | 214 | 8.0 | 21.0 | 0.00 | 0.00 | 0.00 | 81 | 1010.5 |
| 20260506115105 | 60 | 212 | 8.0 | 21.0 | 0.00 | 0.00 | 0.00 | 81 | 1010.6 |
| 20260506115005 | 60 | 212 | 8.0 | 21.0 | 0.00 | 0.00 | 0.00 | 81 | 1010.6 |
| 20260506114905 | 60 | 210 | 8.0 | 21.0 | 0.00 | 0.00 | 0.00 | 81 | 1010.6 |
| 20260506114805 | 60 | 212 | 9.0 | 24.0 | 0.00 | 0.00 | 0.00 | 82 | 1010.6 |
| 20260506114705 | 60 | 213 | 9.0 | 24.0 | 0.00 | 0.00 | 0.00 | 82 | 1010.7 |
| 20260506114608 | 59 | 246 | 5.0 | 25.0 | 0.00 | 0.00 | 0.00 | 82 | 1010.9 |
| 20260506114604 | 60 | 211 | 9.0 | 24.0 | 0.00 | 0.00 | 0.00 | 82 | 1010.7 |
| 20260506114504 | 59 | 213 | 10.0 | 24.0 | 0.00 | 0.00 | 0.00 | 82 | 1010.7 |
| 20260506114405 | 59 | 211 | 10.0 | 24.0 | 0.00 | 0.00 | 0.00 | 82 | 1010.8 |
| 20260506114305 | 59 | 210 | 10.0 | 24.0 | 0.00 | 0.00 | 0.00 | 82 | 1010.7 |
| 20260506114205 | 59 | 207 | 10.0 | 24.0 | 0.00 | 0.00 | 0.00 | 82 | 1010.6 |
| 20260506114105 | 59 | 207 | 10.0 | 24.0 | 0.00 | 0.00 | 0.00 | 82 | 1010.7 |
| 20260506114005 | 59 | 205 | 10.0 | 24.0 | 0.00 | 0.00 | 0.00 | 82 | 1010.8 |
| 20260506113905 | 59 | 205 | 10.0 | 24.0 | 0.00 | 0.00 | 0.00 | 82 | 1010.7 |
| 20260506113805 | 59 | 201 | 9.0 | 23.0 | 0.00 | 0.00 | 0.00 | 82 | 1010.8 |
| 20260506113705 | 59 | 201 | 9.0 | 23.0 | 0.00 | 0.00 | 0.00 | 82 | 1010.6 |
| 20260506113605 | 59 | 201 | 9.0 | 23.0 | 0.00 | 0.00 | 0.00 | 82 | 1010.7 |
| 20260506113505 | 59 | 198 | 9.0 | 23.0 | 0.00 | 0.00 | 0.00 | 82 | 1010.7 |
| 20260506113404 | 59 | 198 | 9.0 | 23.0 | 0.00 | 0.00 | 0.00 | 82 | 1010.7 |
| 20260506113305 | 59 | 196 | 9.0 | 26.0 | 0.00 | 0.00 | 0.00 | 82 | 1010.8 |
| 20260506113205 | 59 | 196 | 9.0 | 26.0 | 0.00 | 0.00 | 0.00 | 82 | 1010.8 |
| 20260506113120 | 58 | 176 | 8.0 | 26.0 | 0.00 | 0.00 | 0.00 | 82 | 1011.0 |
| 20260506113105 | 59 | 197 | 9.0 | 26.0 | 0.00 | 0.00 | 0.00 | 82 | 1010.8 |
| 20260506113005 | 59 | 197 | 9.0 | 26.0 | 0.00 | 0.00 | 0.00 | 82 | 1010.7 |
| 20260506112904 | 59 | 201 | 9.0 | 26.0 | 0.00 | 0.00 | 0.00 | 82 | 1010.7 |
| 20260506112805 | 59 | 203 | 9.0 | 26.0 | 0.00 | 0.00 | 0.00 | 82 | 1010.8 |
| 20260506112705 | 59 | 203 | 9.0 | 26.0 | 0.00 | 0.00 | 0.00 | 82 | 1010.7 |
| 20260506112605 | 59 | 202 | 10.0 | 26.0 | 0.00 | 0.00 | 0.00 | 82 | 1010.7 |
| 20260506112505 | 59 | 202 | 10.0 | 26.0 | 0.00 | 0.00 | 0.00 | 82 | 1010.8 |
| 20260506112404 | 59 | 202 | 10.0 | 26.0 | 0.00 | 0.00 | 0.00 | 82 | 1010.8 |
| 20260506112306 | 59 | 203 | 10.0 | 22.0 | 0.00 | 0.00 | 0.00 | 82 | 1010.8 |
| 20260506112205 | 59 | 206 | 10.0 | 22.0 | 0.00 | 0.00 | 0.00 | 82 | 1010.7 |
| 20260506112104 | 59 | 207 | 10.0 | 22.0 | 0.00 | 0.00 | 0.00 | 82 | 1010.9 |
| 20260506112005 | 59 | 206 | 9.0 | 22.0 | 0.00 | 0.00 | 0.00 | 82 | 1010.7 |
| 20260506111904 | 58 | 204 | 9.0 | 22.0 | 0.00 | 0.00 | 0.00 | 82 | 1010.7 |
| 20260506111805 | 58 | 203 | 9.0 | 22.0 | 0.00 | 0.00 | 0.00 | 82 | 1010.8 |
| 20260506111705 | 58 | 202 | 9.0 | 22.0 | 0.00 | 0.00 | 0.00 | 82 | 1010.6 |
| 20260506111607 | 58 | 196 | 12.0 | 22.0 | 0.00 | 0.00 | 0.00 | 82 | 1010.9 |
| 20260506111604 | 58 | 202 | 8.0 | 22.0 | 0.00 | 0.00 | 0.00 | 82 | 1010.7 |
| 20260506111505 | 58 | 203 | 8.0 | 22.0 | 0.00 | 0.00 | 0.00 | 83 | 1010.8 |
| 20260506111405 | 58 | 202 | 7.0 | 21.0 | 0.00 | 0.00 | 0.00 | 83 | 1010.7 |
| 20260506111304 | 58 | 202 | 7.0 | 19.0 | 0.00 | 0.00 | 0.00 | 83 | 1010.7 |
| 20260506111205 | 58 | 200 | 6.0 | 17.0 | 0.00 | 0.00 | 0.00 | 83 | 1010.7 |
| 20260506111105 | 58 | 199 | 6.0 | 17.0 | 0.00 | 0.00 | 0.00 | 83 | 1010.7 |
| 20260506111004 | 58 | 199 | 6.0 | 17.0 | 0.00 | 0.00 | 0.00 | 83 | 1010.8 |
| 20260506110905 | 58 | 196 | 6.0 | 17.0 | 0.00 | 0.00 | 0.00 | 83 | 1010.6 |
| 20260506110805 | 58 | 196 | 6.0 | 17.0 | 0.00 | 0.00 | 0.00 | 83 | 1010.7 |
| 20260506110704 | 58 | 197 | 7.0 | 17.0 | 0.00 | 0.00 | 0.00 | 83 | 1010.8 |
| 20260506110605 | 58 | 196 | 7.0 | 17.0 | 0.00 | 0.00 | 0.00 | 83 | 1010.8 |
| 20260506110505 | 58 | 196 | 7.0 | 17.0 | 0.00 | 0.00 | 0.00 | 83 | 1010.7 |
| 20260506110404 | 58 | 196 | 7.0 | 17.0 | 0.00 | 0.00 | 0.00 | 83 | 1010.7 |
| 20260506110305 | 58 | 196 | 8.0 | 17.0 | 0.00 | 0.00 | 0.00 | 83 | 1010.7 |
| 20260506110204 | 58 | 196 | 8.0 | 17.0 | 0.00 | 0.00 | 0.00 | 83 | 1010.8 |
| 20260506110119 | 58 | 219 | 4.0 | 19.0 | 0.00 | 0.00 | 0.00 | 83 | 1011.0 |
| 20260506110105 | 58 | 198 | 8.0 | 17.0 | 0.00 | 0.00 | 0.00 | 83 | 1010.8 |
| 20260506110005 | 58 | 198 | 9.0 | 17.0 | 0.00 | 0.00 | 0.00 | 83 | 1010.7 |
| 20260506105405 | 58 | 205 | 8.0 | 23.0 | 0.00 | 0.00 | 0.00 | 84 | 1010.6 |
| 20260506105305 | 58 | 205 | 8.0 | 23.0 | 0.00 | 0.00 | 0.00 | 84 | 1010.6 |
| 20260506105204 | 58 | 205 | 8.0 | 23.0 | 0.00 | 0.00 | 0.00 | 84 | 1010.5 |
| 20260506105105 | 58 | 201 | 7.0 | 23.0 | 0.00 | 0.00 | 0.00 | 84 | 1010.5 |
| 20260506105004 | 58 | 202 | 7.0 | 23.0 | 0.00 | 0.00 | 0.00 | 84 | 1010.6 |
| 20260506104905 | 58 | 199 | 7.0 | 23.0 | 0.00 | 0.00 | 0.00 | 84 | 1010.6 |
| 20260506104805 | 58 | 199 | 7.0 | 23.0 | 0.00 | 0.00 | 0.00 | 84 | 1010.6 |
| 20260506104704 | 58 | 200 | 7.0 | 23.0 | 0.00 | 0.00 | 0.00 | 84 | 1010.6 |
| 20260506104610 | 57 | 223 | 8.0 | 23.0 | 0.00 | 0.00 | 0.00 | 84 | 1010.8 |
| 20260506104605 | 58 | 199 | 7.0 | 23.0 | 0.00 | 0.00 | 0.00 | 84 | 1010.6 |
| 20260506104504 | 58 | 201 | 6.0 | 23.0 | 0.00 | 0.00 | 0.00 | 84 | 1010.6 |
| 20260506104405 | 58 | 200 | 7.0 | 15.0 | 0.00 | 0.00 | 0.00 | 84 | 1010.6 |
| 20260506104305 | 58 | 199 | 7.0 | 18.0 | 0.00 | 0.00 | 0.00 | 84 | 1010.7 |
| 20260506104205 | 58 | 200 | 7.0 | 18.0 | 0.00 | 0.00 | 0.00 | 84 | 1010.7 |
| 20260506104104 | 58 | 200 | 7.0 | 18.0 | 0.00 | 0.00 | 0.00 | 84 | 1010.7 |
| 20260506104005 | 58 | 199 | 8.0 | 18.0 | 0.00 | 0.00 | 0.00 | 84 | 1010.6 |
| 20260506103905 | 58 | 198 | 8.0 | 18.0 | 0.00 | 0.00 | 0.00 | 84 | 1010.6 |
| 20260506103204 | 58 | 194 | 9.0 | 27.0 | 0.00 | 0.00 | 0.00 | 84 | 1010.7 |
| 20260506103117 | 57 | 117 | 8.0 | 24.0 | 0.00 | 0.00 | 0.00 | 84 | 1010.9 |
| 20260506103105 | 57 | 194 | 9.0 | 27.0 | 0.00 | 0.00 | 0.00 | 84 | 1010.8 |
| 20260506103004 | 57 | 193 | 9.0 | 27.0 | 0.00 | 0.00 | 0.00 | 84 | 1010.7 |
| 20260506102904 | 57 | 195 | 8.0 | 27.0 | 0.00 | 0.00 | 0.00 | 84 | 1010.8 |
| 20260506102805 | 57 | 194 | 8.0 | 27.0 | 0.00 | 0.00 | 0.00 | 84 | 1010.8 |
| 20260506102704 | 57 | 197 | 8.0 | 27.0 | 0.00 | 0.00 | 0.00 | 84 | 1010.8 |
| 20260506102605 | 57 | 197 | 8.0 | 27.0 | 0.00 | 0.00 | 0.00 | 84 | 1010.8 |
| 20260506102504 | 57 | 199 | 8.0 | 27.0 | 0.00 | 0.00 | 0.00 | 84 | 1010.8 |
| 20260506102405 | 57 | 201 | 8.0 | 27.0 | 0.00 | 0.00 | 0.00 | 84 | 1010.7 |
| 20260506102306 | 57 | 201 | 7.0 | 19.0 | 0.00 | 0.00 | 0.00 | 84 | 1010.7 |
| 20260506102204 | 57 | 199 | 7.0 | 19.0 | 0.00 | 0.00 | 0.00 | 84 | 1010.7 |
| 20260506102105 | 57 | 200 | 8.0 | 21.0 | 0.00 | 0.00 | 0.00 | 84 | 1010.8 |
| 20260506102005 | 58 | 201 | 8.0 | 22.0 | 0.00 | 0.00 | 0.00 | 84 | 1010.8 |
| 20260506101904 | 57 | 201 | 8.0 | 22.0 | 0.00 | 0.00 | 0.00 | 84 | 1010.7 |
| 20260506101805 | 57 | 201 | 8.0 | 22.0 | 0.00 | 0.00 | 0.00 | 84 | 1010.6 |
| 20260506101704 | 57 | 201 | 8.0 | 22.0 | 0.00 | 0.00 | 0.00 | 84 | 1010.8 |
| 20260506101637 | 57 | 176 | 5.0 | 21.0 | 0.00 | 0.00 | 0.00 | 84 | 1010.9 |
| 20260506101605 | 57 | 201 | 8.0 | 22.0 | 0.00 | 0.00 | 0.00 | 84 | 1010.7 |
| 20260506101505 | 57 | 201 | 8.0 | 22.0 | 0.00 | 0.00 | 0.00 | 84 | 1010.7 |
| 20260506101404 | 57 | 199 | 8.0 | 22.0 | 0.00 | 0.00 | 0.00 | 84 | 1010.6 |
| 20260506101305 | 57 | 199 | 9.0 | 22.0 | 0.00 | 0.00 | 0.00 | 84 | 1010.7 |
| 20260506101205 | 57 | 199 | 9.0 | 22.0 | 0.00 | 0.00 | 0.00 | 84 | 1010.7 |
| 20260506101104 | 57 | 199 | 9.0 | 22.0 | 0.00 | 0.00 | 0.00 | 84 | 1010.7 |
| 20260506101005 | 57 | 199 | 8.0 | 21.0 | 0.00 | 0.00 | 0.00 | 84 | 1010.7 |
| 20260506100904 | 58 | 198 | 8.0 | 21.0 | 0.00 | 0.00 | 0.00 | 84 | 1010.6 |
| 20260506100804 | 57 | 197 | 8.0 | 18.0 | 0.00 | 0.00 | 0.00 | 83 | 1010.7 |
| 20260506100705 | 58 | 195 | 8.0 | 18.0 | 0.00 | 0.00 | 0.00 | 84 | 1010.4 |
| 20260506100604 | 58 | 193 | 8.0 | 18.0 | 0.00 | 0.00 | 0.00 | 83 | 1010.6 |
| 20260506100504 | 58 | 192 | 8.0 | 18.0 | 0.00 | 0.00 | 0.00 | 83 | 1010.6 |
| 20260506100404 | 57 | 193 | 8.0 | 18.0 | 0.00 | 0.00 | 0.00 | 83 | 1010.5 |
| 20260506100304 | 58 | 193 | 8.0 | 18.0 | 0.00 | 0.00 | 0.00 | 84 | 1010.6 |
| 20260506100205 | 58 | 192 | 8.0 | 17.0 | 0.00 | 0.00 | 0.00 | 84 | 1010.6 |
| 20260506100117 | 57 | 183 | 7.0 | 17.0 | 0.00 | 0.00 | 0.00 | 84 | 1010.8 |
| 20260506095604 | 58 | 195 | 9.0 | 24.0 | 0.00 | 0.00 | 0.00 | 84 | 1010.6 |
| 20260506095505 | 58 | 196 | 9.0 | 24.0 | 0.00 | 0.00 | 0.00 | 84 | 1010.7 |
| 20260506095404 | 58 | 196 | 9.0 | 24.0 | 0.00 | 0.00 | 0.00 | 84 | 1010.6 |
| 20260506095306 | 58 | 197 | 10.0 | 24.0 | 0.00 | 0.00 | 0.00 | 84 | 1010.6 |
| 20260506095205 | 58 | 196 | 9.0 | 24.0 | 0.00 | 0.00 | 0.00 | 84 | 1010.5 |
| 20260506095105 | 58 | 196 | 10.0 | 24.0 | 0.00 | 0.00 | 0.00 | 84 | 1010.6 |
| 20260506095004 | 58 | 194 | 10.0 | 24.0 | 0.00 | 0.00 | 0.00 | 84 | 1010.6 |
| 20260506094905 | 58 | 194 | 9.0 | 24.0 | 0.00 | 0.00 | 0.00 | 84 | 1010.6 |
| 20260506094804 | 58 | 196 | 10.0 | 24.0 | 0.00 | 0.00 | 0.00 | 84 | 1010.5 |
| 20260506094705 | 58 | 198 | 10.0 | 24.0 | 0.00 | 0.00 | 0.00 | 84 | 1010.5 |
| 20260506094608 | 57 | 201 | 11.0 | 24.0 | 0.00 | 0.00 | 0.00 | 84 | 1010.7 |
| 20260506094605 | 58 | 196 | 10.0 | 24.0 | 0.00 | 0.00 | 0.00 | 84 | 1010.5 |
| 20260506094504 | 58 | 196 | 10.0 | 24.0 | 0.00 | 0.00 | 0.00 | 84 | 1010.6 |
| 20260506094404 | 58 | 197 | 9.0 | 24.0 | 0.00 | 0.00 | 0.00 | 84 | 1010.5 |
| 20260506094305 | 58 | 195 | 9.0 | 24.0 | 0.00 | 0.00 | 0.00 | 84 | 1010.5 |
| 20260506094205 | 58 | 195 | 9.0 | 24.0 | 0.00 | 0.00 | 0.00 | 84 | 1010.6 |
| 20260506094105 | 58 | 197 | 9.0 | 24.0 | 0.00 | 0.00 | 0.00 | 84 | 1010.5 |
| 20260506094004 | 58 | 198 | 9.0 | 24.0 | 0.00 | 0.00 | 0.00 | 84 | 1010.7 |
| 20260506093904 | 58 | 199 | 9.0 | 26.0 | 0.00 | 0.00 | 0.00 | 84 | 1010.5 |
| 20260506093805 | 58 | 198 | 9.0 | 26.0 | 0.00 | 0.00 | 0.00 | 84 | 1010.5 |
| 20260506093704 | 58 | 196 | 9.0 | 26.0 | 0.00 | 0.00 | 0.00 | 84 | 1010.5 |
| 20260506093605 | 58 | 197 | 9.0 | 26.0 | 0.00 | 0.00 | 0.00 | 84 | 1010.5 |
| 20260506093504 | 58 | 197 | 9.0 | 26.0 | 0.00 | 0.00 | 0.00 | 83 | 1010.6 |
| 20260506093405 | 58 | 196 | 9.0 | 26.0 | 0.00 | 0.00 | 0.00 | 84 | 1010.5 |
| 20260506093305 | 58 | 197 | 9.0 | 26.0 | 0.00 | 0.00 | 0.00 | 83 | 1010.5 |
| 20260506093204 | 58 | 199 | 9.0 | 26.0 | 0.00 | 0.00 | 0.00 | 84 | 1010.6 |
| 20260506093114 | 57 | 183 | 10.0 | 23.0 | 0.00 | 0.00 | 0.00 | 83 | 1010.7 |
| 20260506093105 | 58 | 198 | 9.0 | 26.0 | 0.00 | 0.00 | 0.00 | 83 | 1010.5 |
| 20260506093005 | 58 | 199 | 8.0 | 26.0 | 0.00 | 0.00 | 0.00 | 83 | 1010.5 |
| 20260506092904 | 58 | 200 | 8.0 | 20.0 | 0.00 | 0.00 | 0.00 | 83 | 1010.6 |
| 20260506092805 | 58 | 199 | 9.0 | 20.0 | 0.00 | 0.00 | 0.00 | 83 | 1010.6 |
| 20260506092704 | 58 | 197 | 8.0 | 20.0 | 0.00 | 0.00 | 0.00 | 83 | 1010.6 |
| 20260506092605 | 58 | 197 | 8.0 | 20.0 | 0.00 | 0.00 | 0.00 | 83 | 1010.7 |
| 20260506092504 | 58 | 198 | 8.0 | 20.0 | 0.00 | 0.00 | 0.00 | 83 | 1010.7 |
| 20260506092405 | 58 | 199 | 8.0 | 20.0 | 0.00 | 0.00 | 0.00 | 83 | 1010.6 |
| 20260506092306 | 58 | 200 | 8.0 | 20.0 | 0.00 | 0.00 | 0.00 | 83 | 1010.6 |
| 20260506092204 | 58 | 200 | 8.0 | 20.0 | 0.00 | 0.00 | 0.00 | 83 | 1010.6 |
| 20260506092105 | 58 | 200 | 9.0 | 20.0 | 0.00 | 0.00 | 0.00 | 83 | 1010.7 |
| 20260506092004 | 58 | 199 | 9.0 | 23.0 | 0.00 | 0.00 | 0.00 | 83 | 1010.7 |
| 20260506091904 | 58 | 197 | 9.0 | 23.0 | 0.00 | 0.00 | 0.00 | 83 | 1010.7 |
| 20260506091805 | 58 | 199 | 9.0 | 23.0 | 0.00 | 0.00 | 0.00 | 83 | 1010.7 |
| 20260506091704 | 58 | 200 | 9.0 | 23.0 | 0.00 | 0.00 | 0.00 | 83 | 1010.8 |
| 20260506091605 | 58 | 199 | 9.0 | 23.0 | 0.00 | 0.00 | 0.00 | 83 | 1010.7 |
| 20260506091506 | 57 | 166 | 8.0 | 24.0 | 0.00 | 0.00 | 0.00 | 83 | 1011.0 |
| 20260506091504 | 58 | 199 | 9.0 | 23.0 | 0.00 | 0.00 | 0.00 | 83 | 1010.7 |
| 20260506091405 | 58 | 199 | 10.0 | 23.0 | 0.00 | 0.00 | 0.00 | 83 | 1010.7 |
| 20260506091304 | 58 | 199 | 9.0 | 23.0 | 0.00 | 0.00 | 0.00 | 83 | 1010.8 |
| 20260506091205 | 58 | 198 | 9.0 | 23.0 | 0.00 | 0.00 | 0.00 | 83 | 1010.6 |
| 20260506091104 | 58 | 200 | 8.0 | 23.0 | 0.00 | 0.00 | 0.00 | 83 | 1010.7 |
| 20260506091004 | 58 | 201 | 8.0 | 20.0 | 0.00 | 0.00 | 0.00 | 83 | 1010.7 |
| 20260506090905 | 58 | 201 | 8.0 | 20.0 | 0.00 | 0.00 | 0.00 | 83 | 1010.8 |
| 20260506090804 | 58 | 201 | 8.0 | 20.0 | 0.00 | 0.00 | 0.00 | 83 | 1010.7 |
| 20260506090705 | 58 | 201 | 8.0 | 20.0 | 0.00 | 0.00 | 0.00 | 83 | 1010.7 |
| 20260506090112 | 58 | 196 | 5.0 | 22.0 | 0.00 | 0.00 | 0.00 | 83 | 1010.9 |
| 20260506090005 | 58 | 198 | 9.0 | 23.0 | 0.00 | 0.00 | 0.00 | 83 | 1010.7 |
| 20260506085904 | 58 | 200 | 9.0 | 23.0 | 0.00 | 0.00 | 0.00 | 83 | 1010.8 |
| 20260506085805 | 58 | 199 | 8.0 | 23.0 | 0.00 | 0.00 | 0.00 | 83 | 1010.7 |
| 20260506085704 | 58 | 199 | 8.0 | 23.0 | 0.00 | 0.00 | 0.00 | 83 | 1010.7 |
| 20260506085605 | 58 | 201 | 9.0 | 23.0 | 0.00 | 0.00 | 0.00 | 83 | 1010.8 |
| 20260506085504 | 58 | 201 | 8.0 | 23.0 | 0.00 | 0.00 | 0.00 | 83 | 1010.7 |
| 20260506085405 | 58 | 201 | 8.0 | 23.0 | 0.00 | 0.00 | 0.00 | 83 | 1010.8 |
| 20260506085306 | 58 | 200 | 8.0 | 23.0 | 0.00 | 0.00 | 0.00 | 83 | 1010.7 |
| 20260506085204 | 58 | 200 | 8.0 | 17.0 | 0.00 | 0.00 | 0.00 | 83 | 1010.8 |
| 20260506085105 | 58 | 198 | 8.0 | 17.0 | 0.00 | 0.00 | 0.00 | 83 | 1010.9 |
| 20260506085004 | 58 | 198 | 8.0 | 17.0 | 0.00 | 0.00 | 0.00 | 83 | 1010.9 |
| 20260506084904 | 58 | 197 | 8.0 | 17.0 | 0.00 | 0.00 | 0.00 | 83 | 1010.9 |
| 20260506084805 | 58 | 196 | 8.0 | 17.0 | 0.00 | 0.00 | 0.00 | 83 | 1010.9 |
| 20260506084704 | 58 | 197 | 8.0 | 17.0 | 0.00 | 0.00 | 0.00 | 83 | 1010.9 |
| 20260506084634 | 58 | 196 | 6.0 | 18.0 | 0.00 | 0.00 | 0.00 | 83 | 1011.2 |
| 20260506084605 | 58 | 196 | 8.0 | 17.0 | 0.00 | 0.00 | 0.00 | 83 | 1011.0 |
| 20260506084505 | 58 | 195 | 8.0 | 17.0 | 0.00 | 0.00 | 0.00 | 83 | 1010.9 |
| 20260506084404 | 58 | 196 | 8.0 | 17.0 | 0.00 | 0.00 | 0.00 | 83 | 1011.0 |
| 20260506084305 | 58 | 194 | 8.0 | 17.0 | 0.00 | 0.00 | 0.00 | 83 | 1010.9 |
| 20260506084204 | 58 | 193 | 8.0 | 17.0 | 0.00 | 0.00 | 0.00 | 82 | 1010.9 |
| 20260506084105 | 58 | 196 | 9.0 | 17.0 | 0.00 | 0.00 | 0.00 | 82 | 1010.9 |
| 20260506084004 | 58 | 197 | 9.0 | 17.0 | 0.00 | 0.00 | 0.00 | 82 | 1010.9 |
| 20260506083905 | 58 | 196 | 9.0 | 20.0 | 0.00 | 0.00 | 0.00 | 82 | 1010.9 |
| 20260506083804 | 58 | 199 | 9.0 | 24.0 | 0.00 | 0.00 | 0.00 | 82 | 1010.8 |
| 20260506083704 | 58 | 198 | 9.0 | 24.0 | 0.00 | 0.00 | 0.00 | 82 | 1011.0 |
| 20260506083605 | 58 | 201 | 9.0 | 24.0 | 0.00 | 0.00 | 0.00 | 82 | 1011.0 |
| 20260506083504 | 58 | 200 | 9.0 | 24.0 | 0.00 | 0.00 | 0.00 | 82 | 1011.0 |
| 20260506083405 | 58 | 202 | 9.0 | 24.0 | 0.00 | 0.00 | 0.00 | 82 | 1011.1 |
| 20260506083305 | 58 | 201 | 9.0 | 24.0 | 0.00 | 0.00 | 0.00 | 82 | 1011.1 |
| 20260506083204 | 58 | 202 | 9.0 | 24.0 | 0.00 | 0.00 | 0.00 | 82 | 1011.1 |
| 20260506083116 | 58 | 210 | 9.0 | 25.0 | 0.00 | 0.00 | 0.00 | 82 | 1011.3 |
| 20260506083105 | 58 | 198 | 9.0 | 24.0 | 0.00 | 0.00 | 0.00 | 82 | 1011.1 |
| 20260506083005 | 58 | 196 | 8.0 | 24.0 | 0.00 | 0.00 | 0.00 | 82 | 1011.1 |
| 20260506082904 | 58 | 196 | 8.0 | 24.0 | 0.00 | 0.00 | 0.00 | 82 | 1011.0 |
| 20260506082805 | 58 | 194 | 8.0 | 19.0 | 0.00 | 0.00 | 0.00 | 82 | 1011.0 |
| 20260506082705 | 58 | 193 | 7.0 | 19.0 | 0.00 | 0.00 | 0.00 | 82 | 1011.0 |
| 20260506082604 | 58 | 189 | 8.0 | 19.0 | 0.00 | 0.00 | 0.00 | 82 | 1011.1 |
| 20260506082505 | 58 | 189 | 8.0 | 22.0 | 0.00 | 0.00 | 0.00 | 82 | 1011.0 |
| 20260506082405 | 58 | 188 | 8.0 | 22.0 | 0.00 | 0.00 | 0.00 | 82 | 1011.1 |
| 20260506082305 | 58 | 188 | 8.0 | 22.0 | 0.00 | 0.00 | 0.00 | 82 | 1011.0 |
| 20260506082205 | 58 | 189 | 9.0 | 22.0 | 0.00 | 0.00 | 0.00 | 82 | 1011.1 |
| 20260506082105 | 58 | 190 | 8.0 | 22.0 | 0.00 | 0.00 | 0.00 | 82 | 1011.1 |
| 20260506082004 | 58 | 192 | 8.0 | 22.0 | 0.00 | 0.00 | 0.00 | 82 | 1011.1 |
| 20260506081905 | 58 | 191 | 9.0 | 22.0 | 0.00 | 0.00 | 0.00 | 82 | 1011.0 |
| 20260506081804 | 58 | 194 | 9.0 | 22.0 | 0.00 | 0.00 | 0.00 | 82 | 1011.1 |
| 20260506081705 | 58 | 195 | 9.0 | 22.0 | 0.00 | 0.00 | 0.00 | 82 | 1011.0 |
| 20260506081619 | 58 | 187 | 10.0 | 22.0 | 0.00 | 0.00 | 0.00 | 82 | 1011.2 |
| 20260506081605 | 58 | 196 | 9.0 | 22.0 | 0.00 | 0.00 | 0.00 | 82 | 1011.1 |
| 20260506081504 | 58 | 198 | 8.0 | 22.0 | 0.00 | 0.00 | 0.00 | 82 | 1011.0 |
| 20260506081405 | 58 | 198 | 8.0 | 22.0 | 0.00 | 0.00 | 0.00 | 82 | 1011.0 |
| 20260506081304 | 58 | 199 | 8.0 | 22.0 | 0.00 | 0.00 | 0.00 | 82 | 1011.0 |
| 20260506081204 | 58 | 197 | 8.0 | 18.0 | 0.00 | 0.00 | 0.00 | 81 | 1011.0 |
| 20260506081105 | 58 | 199 | 8.0 | 18.0 | 0.00 | 0.00 | 0.00 | 81 | 1011.0 |
| 20260506081004 | 58 | 198 | 8.0 | 18.0 | 0.00 | 0.00 | 0.00 | 81 | 1011.0 |
| 20260506080904 | 58 | 200 | 8.0 | 18.0 | 0.00 | 0.00 | 0.00 | 81 | 1010.9 |
| 20260506080805 | 58 | 196 | 8.0 | 18.0 | 0.00 | 0.00 | 0.00 | 81 | 1010.9 |
| 20260506080704 | 58 | 199 | 8.0 | 18.0 | 0.00 | 0.00 | 0.00 | 81 | 1011.0 |
| 20260506080604 | 58 | 200 | 7.0 | 18.0 | 0.00 | 0.00 | 0.00 | 81 | 1010.9 |
| 20260506080505 | 58 | 199 | 7.0 | 22.0 | 0.00 | 0.00 | 0.00 | 81 | 1011.0 |
| 20260506080404 | 58 | 198 | 8.0 | 22.0 | 0.00 | 0.00 | 0.00 | 81 | 1011.1 |
| 20260506080305 | 58 | 197 | 8.0 | 22.0 | 0.00 | 0.00 | 0.00 | 81 | 1011.1 |
| 20260506080205 | 58 | 197 | 7.0 | 22.0 | 0.00 | 0.00 | 0.00 | 81 | 1011.0 |
| 20260506080115 | 58 | 200 | 7.0 | 22.0 | 0.00 | 0.00 | 0.00 | 81 | 1011.3 |
| 20260506080104 | 58 | 198 | 8.0 | 22.0 | 0.00 | 0.00 | 0.00 | 81 | 1011.0 |
| 20260506073505 | 59 | 200 | 7.0 | 17.0 | 0.00 | 0.00 | 0.00 | 80 | 1011.3 |
| 20260506073405 | 59 | 202 | 7.0 | 22.0 | 0.00 | 0.00 | 0.00 | 80 | 1011.3 |
| 20260506073304 | 59 | 201 | 8.0 | 22.0 | 0.00 | 0.00 | 0.00 | 80 | 1011.3 |
| 20260506073205 | 59 | 201 | 8.0 | 22.0 | 0.00 | 0.00 | 0.00 | 80 | 1011.3 |
| 20260506073112 | 58 | 242 | 8.0 | 20.0 | 0.00 | 0.00 | 0.00 | 80 | 1011.5 |
| 20260506073104 | 59 | 203 | 7.0 | 22.0 | 0.00 | 0.00 | 0.00 | 80 | 1011.3 |
| 20260506073004 | 59 | 206 | 7.0 | 22.0 | 0.00 | 0.00 | 0.00 | 80 | 1011.2 |
| 20260506072905 | 59 | 207 | 7.0 | 22.0 | 0.00 | 0.00 | 0.00 | 80 | 1011.3 |
| 20260506072804 | 59 | 211 | 7.0 | 22.0 | 0.00 | 0.00 | 0.00 | 80 | 1011.4 |
| 20260506072705 | 59 | 211 | 7.0 | 22.0 | 0.00 | 0.00 | 0.00 | 80 | 1011.3 |
| 20260506072604 | 59 | 209 | 7.0 | 22.0 | 0.00 | 0.00 | 0.00 | 80 | 1011.3 |
| 20260506072505 | 59 | 210 | 7.0 | 22.0 | 0.00 | 0.00 | 0.00 | 80 | 1011.3 |
| 20260506072404 | 59 | 207 | 7.0 | 20.0 | 0.00 | 0.00 | 0.00 | 80 | 1011.3 |
| 20260506072306 | 59 | 207 | 7.0 | 20.0 | 0.00 | 0.00 | 0.00 | 80 | 1011.3 |
| 20260506072204 | 59 | 205 | 7.0 | 20.0 | 0.00 | 0.00 | 0.00 | 80 | 1011.3 |
| 20260506072104 | 59 | 204 | 7.0 | 20.0 | 0.00 | 0.00 | 0.00 | 80 | 1011.3 |
| 20260506072005 | 59 | 205 | 8.0 | 23.0 | 0.00 | 0.00 | 0.00 | 80 | 1011.3 |
| 20260506071904 | 59 | 205 | 8.0 | 23.0 | 0.00 | 0.00 | 0.00 | 80 | 1011.4 |
| 20260506071805 | 59 | 203 | 9.0 | 23.0 | 0.00 | 0.00 | 0.00 | 80 | 1011.3 |
| 20260506071705 | 59 | 204 | 8.0 | 23.0 | 0.00 | 0.00 | 0.00 | 80 | 1011.3 |
| 20260506071620 | 58 | 114 | 7.0 | 21.0 | 0.00 | 0.00 | 0.00 | 80 | 1011.4 |
| 20260506071604 | 59 | 205 | 9.0 | 23.0 | 0.00 | 0.00 | 0.00 | 80 | 1011.3 |
| 20260506071505 | 59 | 204 | 9.0 | 23.0 | 0.00 | 0.00 | 0.00 | 80 | 1011.3 |
| 20260506071405 | 59 | 203 | 8.0 | 23.0 | 0.00 | 0.00 | 0.00 | 80 | 1011.2 |
| 20260506071304 | 59 | 204 | 9.0 | 23.0 | 0.00 | 0.00 | 0.00 | 80 | 1011.3 |
| 20260506071205 | 59 | 204 | 9.0 | 23.0 | 0.00 | 0.00 | 0.00 | 80 | 1011.3 |
| 20260506071105 | 59 | 206 | 9.0 | 23.0 | 0.00 | 0.00 | 0.00 | 80 | 1011.3 |
| 20260506071004 | 59 | 204 | 8.0 | 21.0 | 0.00 | 0.00 | 0.00 | 80 | 1011.2 |
| 20260506070905 | 59 | 204 | 9.0 | 21.0 | 0.00 | 0.00 | 0.00 | 80 | 1011.2 |
| 20260506070804 | 59 | 202 | 8.0 | 23.0 | 0.00 | 0.00 | 0.00 | 80 | 1011.2 |
| 20260506070704 | 59 | 200 | 9.0 | 23.0 | 0.00 | 0.00 | 0.00 | 80 | 1011.2 |
| 20260506070605 | 59 | 200 | 9.0 | 23.0 | 0.00 | 0.00 | 0.00 | 80 | 1011.2 |
| 20260506070505 | 59 | 198 | 9.0 | 23.0 | 0.00 | 0.00 | 0.00 | 80 | 1011.2 |
| 20260506070404 | 59 | 203 | 9.0 | 23.0 | 0.00 | 0.00 | 0.00 | 80 | 1011.2 |
| 20260506070305 | 59 | 202 | 8.0 | 23.0 | 0.00 | 0.00 | 0.00 | 80 | 1011.3 |
| 20260506070204 | 59 | 204 | 8.0 | 23.0 | 0.00 | 0.00 | 0.00 | 80 | 1011.2 |
| 20260506070112 | 58 | 278 | 7.0 | 23.0 | 0.00 | 0.00 | 0.00 | 80 | 1011.4 |
| 20260506070104 | 59 | 202 | 8.0 | 23.0 | 0.00 | 0.00 | 0.00 | 80 | 1011.2 |
| 20260506062204 | 59 | 204 | 10.0 | 26.0 | 0.00 | 0.00 | 0.00 | 80 | 1010.9 |
| 20260506062105 | 59 | 204 | 10.0 | 26.0 | 0.00 | 0.00 | 0.00 | 80 | 1011.0 |
| 20260506062005 | 59 | 202 | 10.0 | 26.0 | 0.00 | 0.00 | 0.00 | 79 | 1011.1 |
| 20260506061904 | 59 | 201 | 10.0 | 26.0 | 0.00 | 0.00 | 0.00 | 80 | 1011.1 |
| 20260506061805 | 59 | 200 | 9.0 | 26.0 | 0.00 | 0.00 | 0.00 | 79 | 1011.0 |
| 20260506061704 | 59 | 200 | 9.0 | 26.0 | 0.00 | 0.00 | 0.00 | 79 | 1011.1 |
| 20260506061620 | 59 | 177 | 12.0 | 26.0 | 0.00 | 0.00 | 0.00 | 79 | 1011.2 |
| 20260506061604 | 59 | 202 | 9.0 | 26.0 | 0.00 | 0.00 | 0.00 | 79 | 1011.1 |
| 20260506061505 | 59 | 199 | 8.0 | 26.0 | 0.00 | 0.00 | 0.00 | 79 | 1011.1 |
| 20260506061404 | 59 | 200 | 8.0 | 25.0 | 0.00 | 0.00 | 0.00 | 79 | 1011.2 |
| 20260506061305 | 59 | 203 | 8.0 | 20.0 | 0.00 | 0.00 | 0.00 | 79 | 1011.1 |
| 20260506061205 | 59 | 202 | 8.0 | 19.0 | 0.00 | 0.00 | 0.00 | 79 | 1011.1 |
| 20260506061104 | 59 | 203 | 8.0 | 19.0 | 0.00 | 0.00 | 0.00 | 79 | 1011.2 |
| 20260506061005 | 59 | 205 | 8.0 | 19.0 | 0.00 | 0.00 | 0.00 | 79 | 1011.3 |
| 20260506060904 | 59 | 206 | 8.0 | 17.0 | 0.00 | 0.00 | 0.00 | 79 | 1011.0 |
| 20260506060804 | 59 | 207 | 8.0 | 25.0 | 0.00 | 0.00 | 0.00 | 79 | 1011.1 |
| 20260506060705 | 59 | 205 | 8.0 | 25.0 | 0.00 | 0.00 | 0.00 | 79 | 1011.2 |
| 20260506060604 | 59 | 205 | 8.0 | 25.0 | 0.00 | 0.00 | 0.00 | 79 | 1011.2 |
| 20260506060504 | 59 | 207 | 8.0 | 25.0 | 0.00 | 0.00 | 0.00 | 79 | 1011.2 |
| 20260506060405 | 59 | 205 | 8.0 | 25.0 | 0.00 | 0.00 | 0.00 | 79 | 1011.3 |
| 20260506060304 | 59 | 203 | 8.0 | 25.0 | 0.00 | 0.00 | 0.00 | 79 | 1011.2 |
| 20260506060205 | 59 | 202 | 8.0 | 25.0 | 0.00 | 0.00 | 0.00 | 79 | 1011.3 |
| 20260506060110 | 59 | 294 | 8.0 | 22.0 | 0.00 | 0.00 | 0.00 | 79 | 1011.5 |
| 20260506060104 | 59 | 199 | 8.0 | 25.0 | 0.00 | 0.00 | 0.00 | 79 | 1011.2 |
| 20260506051404 | 60 | 204 | 8.0 | 20.0 | 0.00 | 0.00 | 0.00 | 78 | 1011.3 |
| 20260506051305 | 60 | 203 | 9.0 | 20.0 | 0.00 | 0.00 | 0.00 | 78 | 1011.3 |
| 20260506051205 | 60 | 200 | 9.0 | 20.0 | 0.00 | 0.00 | 0.00 | 78 | 1011.3 |
| 20260506051104 | 60 | 202 | 9.0 | 20.0 | 0.00 | 0.00 | 0.00 | 78 | 1011.4 |
| 20260506051005 | 60 | 202 | 9.0 | 20.0 | 0.00 | 0.00 | 0.00 | 78 | 1011.2 |
| 20260506050904 | 60 | 203 | 9.0 | 21.0 | 0.00 | 0.00 | 0.00 | 78 | 1011.2 |
| 20260506050804 | 60 | 204 | 9.0 | 21.0 | 0.00 | 0.00 | 0.00 | 78 | 1011.3 |
| 20260506050705 | 60 | 205 | 9.0 | 21.0 | 0.00 | 0.00 | 0.00 | 78 | 1011.2 |
| 20260506050604 | 60 | 205 | 9.0 | 23.0 | 0.00 | 0.00 | 0.00 | 78 | 1011.3 |
| 20260506050505 | 60 | 206 | 9.0 | 23.0 | 0.00 | 0.00 | 0.00 | 78 | 1011.2 |
| 20260506050405 | 60 | 207 | 9.0 | 23.0 | 0.00 | 0.00 | 0.00 | 78 | 1011.2 |
| 20260506050304 | 60 | 207 | 10.0 | 23.0 | 0.00 | 0.00 | 0.00 | 78 | 1011.2 |
| 20260506050205 | 60 | 206 | 10.0 | 23.0 | 0.00 | 0.00 | 0.00 | 78 | 1011.3 |
| 20260506050119 | 59 | 155 | 8.0 | 23.0 | 0.00 | 0.00 | 0.00 | 78 | 1011.4 |
| 20260506050104 | 60 | 204 | 10.0 | 26.0 | 0.00 | 0.00 | 0.00 | 78 | 1011.3 |
| 20260506045104 | 60 | 201 | 9.0 | 29.0 | 0.00 | 0.00 | 0.00 | 78 | 1011.3 |
| 20260506045004 | 60 | 201 | 10.0 | 29.0 | 0.00 | 0.00 | 0.00 | 78 | 1011.3 |
| 20260506044905 | 60 | 200 | 9.0 | 29.0 | 0.00 | 0.00 | 0.00 | 78 | 1011.3 |
| 20260506044804 | 60 | 199 | 9.0 | 29.0 | 0.00 | 0.00 | 0.00 | 78 | 1011.2 |
| 20260506044705 | 60 | 200 | 9.0 | 29.0 | 0.00 | 0.00 | 0.00 | 77 | 1011.2 |
| 20260506044617 | 59 | 196 | 10.0 | 29.0 | 0.00 | 0.00 | 0.00 | 77 | 1011.5 |
| 20260506044605 | 60 | 199 | 9.0 | 29.0 | 0.00 | 0.00 | 0.00 | 77 | 1011.3 |
| 20260506044504 | 60 | 200 | 9.0 | 29.0 | 0.00 | 0.00 | 0.00 | 77 | 1011.2 |
| 20260506044405 | 60 | 201 | 9.0 | 29.0 | 0.00 | 0.00 | 0.00 | 77 | 1011.3 |
| 20260506044305 | 60 | 200 | 9.0 | 29.0 | 0.00 | 0.00 | 0.00 | 77 | 1011.3 |
| 20260506044204 | 60 | 200 | 9.0 | 29.0 | 0.00 | 0.00 | 0.00 | 77 | 1011.3 |
| 20260506044105 | 60 | 200 | 9.0 | 23.0 | 0.00 | 0.00 | 0.00 | 77 | 1011.3 |
| 20260506044004 | 60 | 200 | 9.0 | 23.0 | 0.00 | 0.00 | 0.00 | 77 | 1011.4 |
| 20260506043904 | 60 | 198 | 9.0 | 23.0 | 0.00 | 0.00 | 0.00 | 77 | 1011.3 |
| 20260506043805 | 60 | 200 | 9.0 | 23.0 | 0.00 | 0.00 | 0.00 | 77 | 1011.3 |
| 20260506043705 | 60 | 200 | 10.0 | 23.0 | 0.00 | 0.00 | 0.00 | 77 | 1011.3 |
| 20260506043604 | 60 | 205 | 10.0 | 28.0 | 0.00 | 0.00 | 0.00 | 77 | 1011.3 |
| 20260506043505 | 60 | 203 | 9.0 | 28.0 | 0.00 | 0.00 | 0.00 | 77 | 1011.2 |
| 20260506043405 | 60 | 204 | 10.0 | 28.0 | 0.00 | 0.00 | 0.00 | 77 | 1011.3 |
| 20260506043304 | 60 | 207 | 10.0 | 28.0 | 0.00 | 0.00 | 0.00 | 78 | 1011.2 |
| 20260506043205 | 60 | 205 | 11.0 | 28.0 | 0.00 | 0.00 | 0.00 | 78 | 1011.2 |
| 20260506043109 | 59 | 168 | 7.0 | 28.0 | 0.00 | 0.00 | 0.00 | 78 | 1011.5 |
| 20260506043105 | 60 | 205 | 11.0 | 28.0 | 0.00 | 0.00 | 0.00 | 78 | 1011.2 |
| 20260506043004 | 60 | 206 | 12.0 | 28.0 | 0.00 | 0.00 | 0.00 | 78 | 1011.3 |
| 20260506042905 | 60 | 206 | 12.0 | 28.0 | 0.00 | 0.00 | 0.00 | 78 | 1011.3 |
| 20260506042804 | 60 | 206 | 12.0 | 28.0 | 0.00 | 0.00 | 0.00 | 78 | 1011.3 |
| 20260506042704 | 60 | 207 | 12.0 | 28.0 | 0.00 | 0.00 | 0.00 | 78 | 1011.4 |
| 20260506042605 | 60 | 203 | 11.0 | 33.0 | 0.00 | 0.00 | 0.00 | 78 | 1011.2 |
| 20260506042504 | 60 | 204 | 12.0 | 33.0 | 0.00 | 0.00 | 0.00 | 78 | 1011.3 |
| 20260506042404 | 60 | 202 | 11.0 | 33.0 | 0.00 | 0.00 | 0.00 | 78 | 1011.3 |
| 20260506042305 | 60 | 200 | 11.0 | 33.0 | 0.00 | 0.00 | 0.00 | 78 | 1011.3 |
| 20260506042204 | 60 | 203 | 11.0 | 33.0 | 0.00 | 0.00 | 0.00 | 78 | 1011.3 |
| 20260506042105 | 59 | 203 | 9.0 | 33.0 | 0.00 | 0.00 | 0.00 | 78 | 1011.2 |
| 20260506042004 | 59 | 203 | 9.0 | 33.0 | 0.00 | 0.00 | 0.00 | 78 | 1011.1 |
| 20260506041904 | 59 | 205 | 9.0 | 33.0 | 0.00 | 0.00 | 0.00 | 78 | 1011.1 |
| 20260506041805 | 59 | 204 | 9.0 | 33.0 | 0.00 | 0.00 | 0.00 | 78 | 1011.3 |
| 20260506041704 | 59 | 202 | 8.0 | 33.0 | 0.00 | 0.00 | 0.00 | 78 | 1011.2 |
| 20260506041616 | 59 | 168 | 8.0 | 28.0 | 0.00 | 0.00 | 0.00 | 78 | 1011.5 |
| 20260506041604 | 59 | 204 | 8.0 | 28.0 | 0.00 | 0.00 | 0.00 | 78 | 1011.3 |
| 20260506041505 | 59 | 204 | 8.0 | 28.0 | 0.00 | 0.00 | 0.00 | 78 | 1011.3 |
| 20260506041404 | 59 | 208 | 8.0 | 28.0 | 0.00 | 0.00 | 0.00 | 78 | 1011.3 |
| 20260506041304 | 59 | 209 | 7.0 | 28.0 | 0.00 | 0.00 | 0.00 | 78 | 1011.3 |
| 20260506041204 | 59 | 207 | 7.0 | 19.0 | 0.00 | 0.00 | 0.00 | 77 | 1011.2 |
| 20260506041104 | 59 | 206 | 8.0 | 19.0 | 0.00 | 0.00 | 0.00 | 78 | 1011.2 |
| 20260506041005 | 59 | 206 | 8.0 | 19.0 | 0.00 | 0.00 | 0.00 | 77 | 1011.2 |
| 20260506040904 | 59 | 200 | 8.0 | 30.0 | 0.00 | 0.00 | 0.00 | 77 | 1011.2 |
| 20260506040804 | 59 | 202 | 8.0 | 30.0 | 0.00 | 0.00 | 0.00 | 77 | 1011.2 |
| 20260506040705 | 59 | 202 | 8.0 | 30.0 | 0.00 | 0.00 | 0.00 | 77 | 1011.2 |
| 20260506040604 | 59 | 204 | 9.0 | 30.0 | 0.00 | 0.00 | 0.00 | 77 | 1011.2 |
| 20260506040505 | 59 | 204 | 8.0 | 30.0 | 0.00 | 0.00 | 0.00 | 77 | 1011.2 |
| 20260506040405 | 59 | 202 | 9.0 | 30.0 | 0.00 | 0.00 | 0.00 | 77 | 1011.2 |
| 20260506040107 | 59 | 198 | 10.0 | 30.0 | 0.00 | 0.00 | 0.00 | 77 | 1011.4 |
| 20260506035804 | 59 | 204 | 9.0 | 23.0 | 0.00 | 0.00 | 0.00 | 77 | 1011.2 |
| 20260506035704 | 59 | 205 | 9.0 | 23.0 | 0.00 | 0.00 | 0.00 | 77 | 1011.1 |
| 20260506035605 | 59 | 203 | 9.0 | 19.0 | 0.00 | 0.00 | 0.00 | 77 | 1011.2 |
| 20260506035504 | 59 | 202 | 10.0 | 19.0 | 0.00 | 0.00 | 0.00 | 77 | 1011.3 |
| 20260506035404 | 59 | 204 | 10.0 | 30.0 | 0.00 | 0.00 | 0.00 | 77 | 1011.1 |
| 20260506035306 | 59 | 206 | 10.0 | 30.0 | 0.00 | 0.00 | 0.00 | 77 | 1011.2 |
| 20260506035204 | 59 | 205 | 10.0 | 30.0 | 0.00 | 0.00 | 0.00 | 77 | 1011.2 |
| 20260506035104 | 59 | 206 | 10.0 | 30.0 | 0.00 | 0.00 | 0.00 | 77 | 1011.2 |
| 20260506035004 | 59 | 206 | 10.0 | 30.0 | 0.00 | 0.00 | 0.00 | 77 | 1011.3 |
| 20260506034904 | 59 | 205 | 9.0 | 30.0 | 0.00 | 0.00 | 0.00 | 77 | 1011.2 |
| 20260506034804 | 59 | 207 | 10.0 | 30.0 | 0.00 | 0.00 | 0.00 | 77 | 1011.3 |
| 20260506034704 | 59 | 208 | 9.0 | 30.0 | 0.00 | 0.00 | 0.00 | 77 | 1011.2 |
| 20260506034618 | 59 | 240 | 9.0 | 30.0 | 0.00 | 0.00 | 0.00 | 77 | 1011.4 |
| 20260506034604 | 59 | 209 | 10.0 | 30.0 | 0.00 | 0.00 | 0.00 | 77 | 1011.2 |
| 20260506034504 | 59 | 209 | 10.0 | 30.0 | 0.00 | 0.00 | 0.00 | 76 | 1011.2 |
| 20260506034405 | 59 | 207 | 9.0 | 27.0 | 0.00 | 0.00 | 0.00 | 76 | 1011.2 |
| 20260506034304 | 59 | 207 | 10.0 | 27.0 | 0.00 | 0.00 | 0.00 | 76 | 1011.2 |
| 20260506034205 | 59 | 207 | 10.0 | 27.0 | 0.00 | 0.00 | 0.00 | 76 | 1011.2 |
| 20260506034104 | 59 | 207 | 10.0 | 27.0 | 0.00 | 0.00 | 0.00 | 76 | 1011.2 |
| 20260506034005 | 60 | 208 | 9.0 | 27.0 | 0.00 | 0.00 | 0.00 | 76 | 1011.4 |
| 20260506033905 | 60 | 208 | 10.0 | 27.0 | 0.00 | 0.00 | 0.00 | 76 | 1011.4 |
| 20260506033804 | 60 | 205 | 10.0 | 27.0 | 0.00 | 0.00 | 0.00 | 76 | 1011.3 |
| 20260506033705 | 60 | 205 | 9.0 | 25.0 | 0.00 | 0.00 | 0.00 | 76 | 1011.3 |
| 20260506033107 | 59 | 216 | 7.0 | 19.0 | 0.00 | 0.00 | 0.00 | 76 | 1011.4 |
| 20260506033104 | 60 | 203 | 9.0 | 23.0 | 0.00 | 0.00 | 0.00 | 76 | 1011.2 |
| 20260506033005 | 60 | 203 | 10.0 | 23.0 | 0.00 | 0.00 | 0.00 | 76 | 1011.4 |
| 20260506032904 | 60 | 201 | 9.0 | 23.0 | 0.00 | 0.00 | 0.00 | 76 | 1011.2 |
| 20260506032804 | 60 | 204 | 9.0 | 23.0 | 0.00 | 0.00 | 0.00 | 76 | 1011.3 |
| 20260506032705 | 60 | 206 | 10.0 | 23.0 | 0.00 | 0.00 | 0.00 | 76 | 1011.3 |
| 20260506032604 | 60 | 207 | 10.0 | 23.0 | 0.00 | 0.00 | 0.00 | 76 | 1011.3 |
| 20260506032504 | 60 | 208 | 9.0 | 23.0 | 0.00 | 0.00 | 0.00 | 76 | 1011.3 |
| 20260506032405 | 60 | 208 | 10.0 | 23.0 | 0.00 | 0.00 | 0.00 | 76 | 1011.3 |
| 20260506032306 | 60 | 208 | 10.0 | 23.0 | 0.00 | 0.00 | 0.00 | 76 | 1011.4 |
| 20260506032204 | 60 | 209 | 9.0 | 23.0 | 0.00 | 0.00 | 0.00 | 76 | 1011.4 |
| 20260506032105 | 60 | 209 | 9.0 | 19.0 | 0.00 | 0.00 | 0.00 | 76 | 1011.3 |
| 20260506032004 | 60 | 208 | 9.0 | 19.0 | 0.00 | 0.00 | 0.00 | 76 | 1011.2 |
| 20260506031904 | 60 | 209 | 9.0 | 25.0 | 0.00 | 0.00 | 0.00 | 76 | 1011.3 |
| 20260506031805 | 60 | 209 | 9.0 | 25.0 | 0.00 | 0.00 | 0.00 | 76 | 1011.4 |
| 20260506031704 | 60 | 207 | 9.0 | 25.0 | 0.00 | 0.00 | 0.00 | 76 | 1011.3 |
| 20260506031616 | 59 | 196 | 9.0 | 25.0 | 0.00 | 0.00 | 0.00 | 76 | 1011.5 |
| 20260506031605 | 60 | 207 | 9.0 | 25.0 | 0.00 | 0.00 | 0.00 | 76 | 1011.2 |
| 20260506031504 | 60 | 207 | 8.0 | 25.0 | 0.00 | 0.00 | 0.00 | 76 | 1011.3 |
| 20260506031404 | 60 | 206 | 9.0 | 25.0 | 0.00 | 0.00 | 0.00 | 76 | 1011.3 |
| 20260506031305 | 60 | 205 | 9.0 | 25.0 | 0.00 | 0.00 | 0.00 | 76 | 1011.4 |
| 20260506031204 | 60 | 206 | 8.0 | 25.0 | 0.00 | 0.00 | 0.00 | 76 | 1011.2 |
| 20260506031104 | 60 | 204 | 8.0 | 25.0 | 0.00 | 0.00 | 0.00 | 76 | 1011.2 |
| 20260506031005 | 60 | 203 | 8.0 | 25.0 | 0.00 | 0.00 | 0.00 | 76 | 1011.2 |
| 20260506030904 | 60 | 207 | 8.0 | 25.0 | 0.00 | 0.00 | 0.00 | 76 | 1011.3 |
| 20260506030805 | 60 | 207 | 9.0 | 18.0 | 0.00 | 0.00 | 0.00 | 75 | 1011.3 |
| 20260506030705 | 60 | 208 | 9.0 | 21.0 | 0.00 | 0.00 | 0.00 | 75 | 1011.3 |
| 20260506030604 | 60 | 207 | 9.0 | 21.0 | 0.00 | 0.00 | 0.00 | 75 | 1011.2 |
| 20260506030505 | 60 | 206 | 9.0 | 21.0 | 0.00 | 0.00 | 0.00 | 75 | 1011.3 |
| 20260506030404 | 60 | 206 | 9.0 | 21.0 | 0.00 | 0.00 | 0.00 | 75 | 1011.2 |
| 20260506030304 | 60 | 206 | 9.0 | 21.0 | 0.00 | 0.00 | 0.00 | 75 | 1011.4 |
| 20260506030205 | 60 | 206 | 9.0 | 21.0 | 0.00 | 0.00 | 0.00 | 75 | 1011.2 |
| 20260506030106 | 60 | 181 | 8.0 | 22.0 | 0.00 | 0.00 | 0.00 | 75 | 1011.4 |
| 20260506030104 | 60 | 209 | 9.0 | 21.0 | 0.00 | 0.00 | 0.00 | 75 | 1011.4 |
| 20260506030005 | 60 | 209 | 9.0 | 21.0 | 0.00 | 0.00 | 0.00 | 75 | 1011.3 |
| 20260506025905 | 60 | 207 | 9.0 | 21.0 | 0.00 | 0.00 | 0.00 | 75 | 1011.3 |
| 20260506025804 | 60 | 204 | 9.0 | 21.0 | 0.00 | 0.00 | 0.00 | 75 | 1011.2 |
| 20260506025705 | 60 | 202 | 8.0 | 19.0 | 0.00 | 0.00 | 0.00 | 75 | 1011.3 |
| 20260506025604 | 60 | 204 | 9.0 | 19.0 | 0.00 | 0.00 | 0.00 | 75 | 1011.4 |
| 20260506025504 | 60 | 203 | 8.0 | 19.0 | 0.00 | 0.00 | 0.00 | 75 | 1011.4 |
| 20260506025405 | 60 | 203 | 9.0 | 19.0 | 0.00 | 0.00 | 0.00 | 75 | 1011.4 |
| 20260506024614 | 60 | 212 | 8.0 | 21.0 | 0.00 | 0.00 | 0.00 | 74 | 1011.7 |
| 20260506024204 | 60 | 200 | 9.0 | 23.0 | 0.00 | 0.00 | 0.00 | 74 | 1011.4 |
| 20260506024105 | 60 | 199 | 9.0 | 23.0 | 0.00 | 0.00 | 0.00 | 74 | 1011.3 |
| 20260506024005 | 60 | 201 | 9.0 | 23.0 | 0.00 | 0.00 | 0.00 | 74 | 1011.4 |
| 20260506023904 | 60 | 203 | 10.0 | 23.0 | 0.00 | 0.00 | 0.00 | 74 | 1011.3 |
| 20260506023805 | 60 | 202 | 9.0 | 25.0 | 0.00 | 0.00 | 0.00 | 74 | 1011.4 |
| 20260506023113 | 60 | 218 | 11.0 | 22.0 | 0.00 | 0.00 | 0.00 | 74 | 1011.5 |
| 20260506023104 | 61 | 203 | 10.0 | 25.0 | 0.00 | 0.00 | 0.00 | 74 | 1011.4 |
| 20260506023004 | 61 | 204 | 9.0 | 25.0 | 0.00 | 0.00 | 0.00 | 74 | 1011.3 |
| 20260506022905 | 61 | 203 | 9.0 | 25.0 | 0.00 | 0.00 | 0.00 | 74 | 1011.3 |
| 20260506022804 | 61 | 205 | 9.0 | 24.0 | 0.00 | 0.00 | 0.00 | 74 | 1011.3 |
| 20260506022704 | 61 | 204 | 9.0 | 24.0 | 0.00 | 0.00 | 0.00 | 74 | 1011.4 |
| 20260506022605 | 61 | 205 | 9.0 | 24.0 | 0.00 | 0.00 | 0.00 | 74 | 1011.4 |
| 20260506021612 | 60 | 197 | 10.0 | 23.0 | 0.00 | 0.00 | 0.00 | 73 | 1011.6 |
| 20260506021504 | 61 | 198 | 9.0 | 25.0 | 0.00 | 0.00 | 0.00 | 73 | 1011.3 |
| 20260506021404 | 61 | 195 | 10.0 | 25.0 | 0.00 | 0.00 | 0.00 | 73 | 1011.3 |
| 20260506021305 | 61 | 197 | 9.0 | 25.0 | 0.00 | 0.00 | 0.00 | 73 | 1011.4 |
| 20260506021204 | 61 | 197 | 10.0 | 25.0 | 0.00 | 0.00 | 0.00 | 73 | 1011.3 |
| 20260506021104 | 61 | 196 | 9.0 | 25.0 | 0.00 | 0.00 | 0.00 | 73 | 1011.3 |
| 20260506021005 | 61 | 197 | 9.0 | 25.0 | 0.00 | 0.00 | 0.00 | 73 | 1011.2 |
| 20260506020904 | 61 | 197 | 9.0 | 25.0 | 0.00 | 0.00 | 0.00 | 73 | 1011.3 |
| 20260506020804 | 61 | 198 | 9.0 | 23.0 | 0.00 | 0.00 | 0.00 | 73 | 1011.3 |
| 20260506020705 | 61 | 200 | 9.0 | 23.0 | 0.00 | 0.00 | 0.00 | 73 | 1011.3 |
| 20260506020604 | 61 | 200 | 9.0 | 23.0 | 0.00 | 0.00 | 0.00 | 72 | 1011.4 |
| 20260506020505 | 61 | 201 | 9.0 | 22.0 | 0.00 | 0.00 | 0.00 | 72 | 1011.4 |
| 20260506020405 | 61 | 206 | 8.0 | 22.0 | 0.00 | 0.00 | 0.00 | 73 | 1011.4 |
| 20260506020304 | 61 | 203 | 9.0 | 17.0 | 0.00 | 0.00 | 0.00 | 73 | 1011.3 |
| 20260506020205 | 61 | 205 | 9.0 | 17.0 | 0.00 | 0.00 | 0.00 | 73 | 1011.2 |
| 20260506020104 | 61 | 207 | 9.0 | 17.0 | 0.00 | 0.00 | 0.00 | 72 | 1011.3 |
| 20260506020004 | 61 | 209 | 9.0 | 21.0 | 0.00 | 0.00 | 0.00 | 72 | 1011.3 |
| 20260506015905 | 61 | 210 | 10.0 | 21.0 | 0.00 | 0.00 | 0.00 | 72 | 1011.4 |
| 20260506015804 | 61 | 213 | 10.0 | 28.0 | 0.00 | 0.00 | 0.00 | 72 | 1011.3 |
| 20260506015704 | 61 | 211 | 10.0 | 28.0 | 0.00 | 0.00 | 0.00 | 72 | 1011.2 |
| 20260506015605 | 61 | 211 | 10.0 | 28.0 | 0.00 | 0.00 | 0.00 | 72 | 1011.2 |
| 20260506015504 | 61 | 214 | 10.0 | 28.0 | 0.00 | 0.00 | 0.00 | 72 | 1011.3 |
| 20260506015404 | 61 | 211 | 11.0 | 28.0 | 0.00 | 0.00 | 0.00 | 72 | 1011.3 |
| 20260506015306 | 61 | 213 | 10.0 | 28.0 | 0.00 | 0.00 | 0.00 | 72 | 1011.3 |
| 20260506015204 | 61 | 213 | 10.0 | 28.0 | 0.00 | 0.00 | 0.00 | 72 | 1011.3 |
| 20260506015104 | 62 | 214 | 10.0 | 28.0 | 0.00 | 0.00 | 0.00 | 72 | 1011.3 |
| 20260506015004 | 62 | 212 | 10.0 | 28.0 | 0.00 | 0.00 | 0.00 | 72 | 1011.2 |
| 20260506014904 | 62 | 213 | 10.0 | 28.0 | 0.00 | 0.00 | 0.00 | 72 | 1011.3 |
| 20260506014805 | 62 | 215 | 10.0 | 27.0 | 0.00 | 0.00 | 0.00 | 72 | 1011.2 |
| 20260506014704 | 62 | 219 | 10.0 | 27.0 | 0.00 | 0.00 | 0.00 | 71 | 1011.3 |
| 20260506014610 | 61 | 239 | 10.0 | 26.0 | 0.00 | 0.00 | 0.00 | 72 | 1011.5 |
| 20260506014605 | 62 | 219 | 9.0 | 27.0 | 0.00 | 0.00 | 0.00 | 71 | 1011.4 |
| 20260506014504 | 62 | 219 | 9.0 | 27.0 | 0.00 | 0.00 | 0.00 | 71 | 1011.2 |
| 20260506014404 | 62 | 220 | 9.0 | 27.0 | 0.00 | 0.00 | 0.00 | 71 | 1011.2 |
| 20260506014305 | 62 | 219 | 10.0 | 27.0 | 0.00 | 0.00 | 0.00 | 71 | 1011.3 |
| 20260506014204 | 62 | 219 | 10.0 | 27.0 | 0.00 | 0.00 | 0.00 | 71 | 1011.2 |
| 20260506014105 | 62 | 219 | 10.0 | 27.0 | 0.00 | 0.00 | 0.00 | 71 | 1011.1 |
| 20260506014004 | 62 | 219 | 10.0 | 27.0 | 0.00 | 0.00 | 0.00 | 71 | 1011.2 |
| 20260506013904 | 62 | 218 | 9.0 | 27.0 | 0.00 | 0.00 | 0.00 | 71 | 1011.1 |
| 20260506013805 | 62 | 217 | 10.0 | 23.0 | 0.00 | 0.00 | 0.00 | 71 | 1011.1 |
| 20260506013704 | 62 | 214 | 9.0 | 23.0 | 0.00 | 0.00 | 0.00 | 71 | 1011.2 |
| 20260506013604 | 62 | 214 | 9.0 | 22.0 | 0.00 | 0.00 | 0.00 | 71 | 1011.0 |
| 20260506013505 | 62 | 210 | 9.0 | 22.0 | 0.00 | 0.00 | 0.00 | 71 | 1011.1 |
| 20260506013404 | 62 | 211 | 9.0 | 22.0 | 0.00 | 0.00 | 0.00 | 71 | 1010.9 |
| 20260506013304 | 62 | 211 | 8.0 | 22.0 | 0.00 | 0.00 | 0.00 | 71 | 1011.1 |
| 20260506013117 | 61 | 221 | 7.0 | 22.0 | 0.00 | 0.00 | 0.00 | 71 | 1011.2 |
| 20260506012704 | 62 | 205 | 10.0 | 29.0 | 0.00 | 0.00 | 0.00 | 71 | 1011.0 |
| 20260506012604 | 62 | 206 | 11.0 | 29.0 | 0.00 | 0.00 | 0.00 | 71 | 1011.0 |
| 20260506012505 | 62 | 208 | 11.0 | 30.0 | 0.00 | 0.00 | 0.00 | 71 | 1010.8 |
| 20260506012404 | 62 | 207 | 11.0 | 30.0 | 0.00 | 0.00 | 0.00 | 71 | 1010.9 |
| 20260506012307 | 62 | 207 | 10.0 | 30.0 | 0.00 | 0.00 | 0.00 | 71 | 1010.9 |
| 20260506012205 | 62 | 208 | 10.0 | 30.0 | 0.00 | 0.00 | 0.00 | 71 | 1010.9 |
| 20260506012104 | 62 | 205 | 11.0 | 30.0 | 0.00 | 0.00 | 0.00 | 71 | 1010.9 |
| 20260506012004 | 62 | 205 | 11.0 | 30.0 | 0.00 | 0.00 | 0.00 | 71 | 1010.8 |
| 20260506011904 | 62 | 205 | 11.0 | 30.0 | 0.00 | 0.00 | 0.00 | 71 | 1010.7 |
| 20260506011804 | 62 | 205 | 11.0 | 30.0 | 0.00 | 0.00 | 0.00 | 70 | 1010.9 |
| 20260506011705 | 62 | 207 | 10.0 | 30.0 | 0.00 | 0.00 | 0.00 | 70 | 1010.8 |
| 20260506011608 | 62 | 185 | 13.0 | 29.0 | 0.00 | 0.00 | 0.00 | 70 | 1011.0 |
| 20260506011604 | 62 | 206 | 10.0 | 30.0 | 0.00 | 0.00 | 0.00 | 70 | 1010.8 |
| 20260506011504 | 62 | 204 | 10.0 | 27.0 | 0.00 | 0.00 | 0.00 | 70 | 1010.7 |
| 20260506011405 | 62 | 204 | 10.0 | 27.0 | 0.00 | 0.00 | 0.00 | 70 | 1010.8 |
| 20260506011304 | 62 | 204 | 11.0 | 27.0 | 0.00 | 0.00 | 0.00 | 70 | 1010.8 |
| 20260506011204 | 62 | 204 | 11.0 | 27.0 | 0.00 | 0.00 | 0.00 | 70 | 1010.8 |
| 20260506011105 | 62 | 204 | 10.0 | 27.0 | 0.00 | 0.00 | 0.00 | 70 | 1010.7 |
| 20260506011004 | 62 | 205 | 10.0 | 22.0 | 0.00 | 0.00 | 0.00 | 70 | 1010.7 |
| 20260506010904 | 62 | 206 | 10.0 | 22.0 | 0.00 | 0.00 | 0.00 | 70 | 1010.7 |
| 20260506010805 | 62 | 206 | 9.0 | 22.0 | 0.00 | 0.00 | 0.00 | 70 | 1010.6 |
| 20260506010704 | 62 | 205 | 10.0 | 22.0 | 0.00 | 0.00 | 0.00 | 70 | 1010.7 |
| 20260506010604 | 62 | 206 | 10.0 | 22.0 | 0.00 | 0.00 | 0.00 | 70 | 1010.7 |
| 20260506010505 | 62 | 207 | 10.0 | 22.0 | 0.00 | 0.00 | 0.00 | 70 | 1010.6 |
| 20260506010115 | 61 | 240 | 9.0 | 23.0 | 0.00 | 0.00 | 0.00 | 71 | 1010.9 |
| 20260506005904 | 62 | 209 | 9.0 | 22.0 | 0.00 | 0.00 | 0.00 | 71 | 1010.5 |
| 20260506005804 | 62 | 210 | 9.0 | 22.0 | 0.00 | 0.00 | 0.00 | 71 | 1010.6 |
| 20260506005705 | 62 | 209 | 9.0 | 22.0 | 0.00 | 0.00 | 0.00 | 71 | 1010.5 |
| 20260506005604 | 62 | 208 | 8.0 | 22.0 | 0.00 | 0.00 | 0.00 | 71 | 1010.5 |
| 20260506005504 | 62 | 206 | 9.0 | 22.0 | 0.00 | 0.00 | 0.00 | 71 | 1010.4 |
| 20260506005405 | 62 | 207 | 9.0 | 22.0 | 0.00 | 0.00 | 0.00 | 71 | 1010.4 |
| 20260506005305 | 62 | 207 | 9.0 | 22.0 | 0.00 | 0.00 | 0.00 | 71 | 1010.5 |
| 20260506005204 | 62 | 207 | 9.0 | 22.0 | 0.00 | 0.00 | 0.00 | 71 | 1010.4 |
| 20260506005105 | 62 | 207 | 9.0 | 22.0 | 0.00 | 0.00 | 0.00 | 71 | 1010.5 |
| 20260506005004 | 62 | 208 | 9.0 | 22.0 | 0.00 | 0.00 | 0.00 | 71 | 1010.5 |
| 20260506004904 | 62 | 209 | 10.0 | 26.0 | 0.00 | 0.00 | 0.00 | 71 | 1010.4 |
| 20260506004805 | 62 | 208 | 10.0 | 26.0 | 0.00 | 0.00 | 0.00 | 71 | 1010.4 |
| 20260506004704 | 62 | 208 | 10.0 | 26.0 | 0.00 | 0.00 | 0.00 | 71 | 1010.5 |
| 20260506004604 | 61 | 163 | 8.0 | 26.0 | 0.00 | 0.00 | 0.00 | 71 | 1010.7 |
| 20260506004505 | 62 | 210 | 11.0 | 26.0 | 0.00 | 0.00 | 0.00 | 71 | 1010.4 |
| 20260506004404 | 62 | 211 | 10.0 | 26.0 | 0.00 | 0.00 | 0.00 | 71 | 1010.4 |
| 20260506004304 | 62 | 209 | 10.0 | 26.0 | 0.00 | 0.00 | 0.00 | 71 | 1010.4 |
| 20260506004205 | 62 | 212 | 10.0 | 26.0 | 0.00 | 0.00 | 0.00 | 71 | 1010.3 |
| 20260506004105 | 62 | 210 | 10.0 | 26.0 | 0.00 | 0.00 | 0.00 | 71 | 1010.2 |
| 20260506004004 | 62 | 211 | 10.0 | 26.0 | 0.00 | 0.00 | 0.00 | 71 | 1010.1 |
| 20260506003904 | 62 | 209 | 10.0 | 23.0 | 0.00 | 0.00 | 0.00 | 71 | 1010.3 |
| 20260506003804 | 62 | 210 | 10.0 | 29.0 | 0.00 | 0.00 | 0.00 | 71 | 1010.4 |
| 20260506003705 | 62 | 212 | 10.0 | 29.0 | 0.00 | 0.00 | 0.00 | 71 | 1010.2 |
| 20260506003604 | 62 | 212 | 10.0 | 29.0 | 0.00 | 0.00 | 0.00 | 71 | 1010.2 |
| 20260506003504 | 62 | 211 | 10.0 | 33.0 | 0.00 | 0.00 | 0.00 | 71 | 1010.3 |
| 20260506003404 | 62 | 211 | 10.0 | 33.0 | 0.00 | 0.00 | 0.00 | 71 | 1010.2 |
| 20260506003304 | 62 | 212 | 11.0 | 33.0 | 0.00 | 0.00 | 0.00 | 71 | 1010.2 |
| 20260506003205 | 62 | 210 | 11.0 | 33.0 | 0.00 | 0.00 | 0.00 | 71 | 1010.2 |
| 20260506003110 | 61 | 275 | 10.0 | 31.0 | 0.00 | 0.00 | 0.00 | 71 | 1010.4 |
| 20260506003104 | 62 | 212 | 11.0 | 33.0 | 0.00 | 0.00 | 0.00 | 71 | 1010.2 |
| 20260506003004 | 62 | 212 | 11.0 | 33.0 | 0.00 | 0.00 | 0.00 | 71 | 1010.1 |
| 20260506002905 | 62 | 214 | 11.0 | 33.0 | 0.00 | 0.00 | 0.00 | 71 | 1010.1 |
| 20260506002804 | 62 | 213 | 11.0 | 33.0 | 0.00 | 0.00 | 0.00 | 71 | 1010.2 |
| 20260506002704 | 62 | 212 | 11.0 | 33.0 | 0.00 | 0.00 | 0.00 | 71 | 1010.2 |
| 20260506002605 | 62 | 212 | 11.0 | 33.0 | 0.00 | 0.00 | 0.00 | 71 | 1010.1 |
| 20260506002504 | 62 | 212 | 11.0 | 31.0 | 0.00 | 0.00 | 0.00 | 70 | 1010.2 |
| 20260506002404 | 62 | 212 | 11.0 | 31.0 | 0.00 | 0.00 | 0.00 | 70 | 1010.1 |
| 20260506002306 | 62 | 211 | 11.0 | 31.0 | 0.00 | 0.00 | 0.00 | 71 | 1010.1 |
| 20260506002204 | 62 | 209 | 11.0 | 28.0 | 0.00 | 0.00 | 0.00 | 71 | 1010.1 |
| 20260506002105 | 62 | 210 | 11.0 | 28.0 | 0.00 | 0.00 | 0.00 | 71 | 1010.0 |
| 20260506002004 | 62 | 210 | 11.0 | 28.0 | 0.00 | 0.00 | 0.00 | 71 | 1010.0 |
| 20260506001904 | 62 | 210 | 11.0 | 28.0 | 0.00 | 0.00 | 0.00 | 71 | 1010.1 |
| 20260506001805 | 62 | 210 | 11.0 | 28.0 | 0.00 | 0.00 | 0.00 | 71 | 1009.9 |
| 20260506001704 | 62 | 212 | 12.0 | 28.0 | 0.00 | 0.00 | 0.00 | 71 | 1010.1 |
| 20260506001604 | 62 | 213 | 12.0 | 28.0 | 0.00 | 0.00 | 0.00 | 71 | 1010.0 |
| 20260506001505 | 62 | 215 | 12.0 | 31.0 | 0.00 | 0.00 | 0.00 | 71 | 1010.0 |
| 20260506001404 | 62 | 215 | 12.0 | 31.0 | 0.00 | 0.00 | 0.00 | 71 | 1010.1 |
| 20260506001304 | 62 | 215 | 12.0 | 31.0 | 0.00 | 0.00 | 0.00 | 71 | 1009.9 |
| 20260506001204 | 62 | 217 | 11.0 | 31.0 | 0.00 | 0.00 | 0.00 | 70 | 1010.1 |
| 20260506001104 | 62 | 215 | 11.0 | 31.0 | 0.00 | 0.00 | 0.00 | 71 | 1010.0 |
| 20260506001005 | 62 | 214 | 11.0 | 31.0 | 0.00 | 0.00 | 0.00 | 70 | 1010.2 |
| 20260506000904 | 62 | 213 | 11.0 | 31.0 | 0.00 | 0.00 | 0.00 | 70 | 1010.0 |
| 20260506000804 | 62 | 213 | 10.0 | 31.0 | 0.00 | 0.00 | 0.00 | 70 | 1009.9 |
| 20260506000704 | 62 | 210 | 10.0 | 31.0 | 0.00 | 0.00 | 0.00 | 70 | 1010.1 |
| 20260506000604 | 62 | 210 | 10.0 | 31.0 | 0.00 | 0.00 | 0.00 | 70 | 1010.0 |
| 20260506000505 | 62 | 206 | 10.0 | 24.0 | 0.00 | 0.00 | 0.00 | 70 | 1010.1 |
| 20260506000405 | 62 | 205 | 10.0 | 24.0 | 0.00 | 0.00 | 0.00 | 70 | 1009.9 |
| 20260506000304 | 62 | 205 | 10.0 | 24.0 | 0.00 | 0.00 | 0.00 | 70 | 1009.9 |
| 20260506000205 | 62 | 206 | 10.0 | 25.0 | 0.00 | 0.00 | 0.00 | 70 | 1009.8 |
| 20260506000108 | 61 | 73 | 9.0 | 27.0 | 0.00 | 0.00 | 0.00 | 70 | 1010.0 |
| 20260506000105 | 62 | 206 | 10.0 | 25.0 | 0.00 | 0.00 | 0.00 | 70 | 1009.7 |
| 20260506000004 | 62 | 207 | 10.0 | 25.0 | 0.00 | 0.00 | 0.00 | 70 | 1009.9 |
| 20260505235904 | 62 | 205 | 10.0 | 25.0 | 0.00 | 0.00 | 0.00 | 70 | 1009.8 |
| 20260505235805 | 62 | 205 | 10.0 | 25.0 | 0.00 | 0.00 | 0.00 | 70 | 1009.8 |
| 20260505235704 | 62 | 209 | 10.0 | 25.0 | 0.00 | 0.00 | 0.00 | 70 | 1009.6 |
| 20260505235604 | 62 | 209 | 10.0 | 25.0 | 0.00 | 0.00 | 0.00 | 70 | 1009.7 |
| 20260505235504 | 62 | 209 | 10.0 | 25.0 | 0.00 | 0.00 | 0.00 | 70 | 1009.8 |
| 20260505235404 | 62 | 211 | 11.0 | 25.0 | 0.00 | 0.00 | 0.00 | 70 | 1009.8 |
| 20260505235305 | 62 | 211 | 10.0 | 25.0 | 0.00 | 0.00 | 0.00 | 70 | 1009.6 |
| 20260505235204 | 62 | 212 | 10.0 | 24.0 | 0.00 | 0.00 | 0.00 | 70 | 1009.7 |
| 20260505235104 | 62 | 212 | 11.0 | 24.0 | 0.00 | 0.00 | 0.00 | 70 | 1009.9 |
| 20260505235004 | 62 | 213 | 11.0 | 24.0 | 0.00 | 0.00 | 0.00 | 70 | 1009.8 |
| 20260505234904 | 62 | 215 | 11.0 | 24.0 | 0.00 | 0.00 | 0.00 | 69 | 1009.8 |
| 20260505234805 | 62 | 214 | 12.0 | 27.0 | 0.00 | 0.00 | 0.00 | 69 | 1009.8 |
| 20260505234704 | 62 | 212 | 11.0 | 27.0 | 0.00 | 0.00 | 0.00 | 69 | 1009.9 |
| 20260505234619 | 62 | 261 | 10.0 | 27.0 | 0.00 | 0.00 | 0.00 | 69 | 1010.1 |
| 20260505234604 | 62 | 212 | 11.0 | 27.0 | 0.00 | 0.00 | 0.00 | 69 | 1009.8 |
| 20260505234505 | 62 | 213 | 11.0 | 27.0 | 0.00 | 0.00 | 0.00 | 69 | 1009.9 |
| 20260505234404 | 62 | 212 | 11.0 | 27.0 | 0.00 | 0.00 | 0.00 | 69 | 1009.9 |
| 20260505234304 | 62 | 211 | 11.0 | 27.0 | 0.00 | 0.00 | 0.00 | 69 | 1009.8 |
| 20260505234205 | 62 | 212 | 11.0 | 27.0 | 0.00 | 0.00 | 0.00 | 69 | 1009.7 |
| 20260505234104 | 62 | 213 | 10.0 | 27.0 | 0.00 | 0.00 | 0.00 | 69 | 1009.9 |
| 20260505234004 | 62 | 210 | 10.0 | 27.0 | 0.00 | 0.00 | 0.00 | 69 | 1009.7 |
| 20260505233904 | 62 | 210 | 10.0 | 27.0 | 0.00 | 0.00 | 0.00 | 69 | 1009.7 |
| 20260505233804 | 63 | 210 | 9.0 | 24.0 | 0.00 | 0.00 | 0.00 | 69 | 1009.6 |
| 20260505233704 | 63 | 208 | 10.0 | 21.0 | 0.00 | 0.00 | 0.00 | 69 | 1009.6 |
| 20260505233604 | 63 | 210 | 9.0 | 32.0 | 0.00 | 0.00 | 0.00 | 69 | 1009.6 |
| 20260505233504 | 63 | 211 | 9.0 | 32.0 | 0.00 | 0.00 | 0.00 | 69 | 1009.7 |
| 20260505233404 | 63 | 210 | 8.0 | 32.0 | 0.00 | 0.00 | 0.00 | 69 | 1009.6 |
| 20260505233304 | 63 | 210 | 8.0 | 32.0 | 0.00 | 0.00 | 0.00 | 69 | 1009.6 |
| 20260505233204 | 63 | 209 | 8.0 | 32.0 | 0.00 | 0.00 | 0.00 | 69 | 1009.6 |
| 20260505233107 | 62 | 189 | 9.0 | 30.0 | 0.00 | 0.00 | 0.00 | 69 | 1009.8 |
| 20260505233105 | 63 | 206 | 9.0 | 32.0 | 0.00 | 0.00 | 0.00 | 69 | 1009.6 |
| 20260505233004 | 63 | 208 | 9.0 | 32.0 | 0.00 | 0.00 | 0.00 | 69 | 1009.6 |
| 20260505232904 | 63 | 208 | 9.0 | 32.0 | 0.00 | 0.00 | 0.00 | 69 | 1009.5 |
| 20260505232805 | 63 | 211 | 9.0 | 32.0 | 0.00 | 0.00 | 0.00 | 69 | 1009.5 |
| 20260505232704 | 63 | 211 | 9.0 | 32.0 | 0.00 | 0.00 | 0.00 | 69 | 1009.4 |
| 20260505232604 | 63 | 209 | 9.0 | 30.0 | 0.00 | 0.00 | 0.00 | 69 | 1009.4 |
| 20260505232505 | 63 | 208 | 10.0 | 30.0 | 0.00 | 0.00 | 0.00 | 69 | 1009.5 |
| 20260505232404 | 63 | 207 | 10.0 | 30.0 | 0.00 | 0.00 | 0.00 | 69 | 1009.4 |
| 20260505232305 | 63 | 207 | 11.0 | 30.0 | 0.00 | 0.00 | 0.00 | 68 | 1009.5 |
| 20260505232205 | 63 | 207 | 12.0 | 30.0 | 0.00 | 0.00 | 0.00 | 68 | 1009.5 |
| 20260505232104 | 63 | 211 | 11.0 | 30.0 | 0.00 | 0.00 | 0.00 | 68 | 1009.5 |
| 20260505232004 | 63 | 210 | 11.0 | 30.0 | 0.00 | 0.00 | 0.00 | 68 | 1009.5 |
| 20260505231905 | 63 | 210 | 11.0 | 30.0 | 0.00 | 0.00 | 0.00 | 68 | 1009.5 |
| 20260505231804 | 63 | 208 | 10.0 | 30.0 | 0.00 | 0.00 | 0.00 | 68 | 1009.4 |
| 20260505231704 | 63 | 206 | 10.0 | 30.0 | 0.00 | 0.00 | 0.00 | 68 | 1009.5 |
| 20260505231620 | 63 | 183 | 13.0 | 29.0 | 0.00 | 0.00 | 0.00 | 68 | 1009.7 |
| 20260505231604 | 63 | 208 | 10.0 | 30.0 | 0.00 | 0.00 | 0.00 | 68 | 1009.5 |
| 20260505231504 | 63 | 207 | 10.0 | 25.0 | 0.00 | 0.00 | 0.00 | 68 | 1009.5 |
| 20260505231405 | 63 | 210 | 10.0 | 31.0 | 0.00 | 0.00 | 0.00 | 68 | 1009.5 |
| 20260505231304 | 63 | 209 | 9.0 | 31.0 | 0.00 | 0.00 | 0.00 | 68 | 1009.5 |
| 20260505231204 | 63 | 208 | 9.0 | 31.0 | 0.00 | 0.00 | 0.00 | 68 | 1009.6 |
| 20260505231105 | 63 | 204 | 9.0 | 31.0 | 0.00 | 0.00 | 0.00 | 68 | 1009.5 |
| 20260505231004 | 63 | 206 | 10.0 | 31.0 | 0.00 | 0.00 | 0.00 | 68 | 1009.7 |
| 20260505230904 | 63 | 206 | 10.0 | 31.0 | 0.00 | 0.00 | 0.00 | 68 | 1009.5 |
| 20260505230805 | 63 | 208 | 10.0 | 32.0 | 0.00 | 0.00 | 0.00 | 68 | 1009.5 |
| 20260505230704 | 63 | 209 | 10.0 | 32.0 | 0.00 | 0.00 | 0.00 | 68 | 1009.4 |
| 20260505230604 | 63 | 211 | 10.0 | 32.0 | 0.00 | 0.00 | 0.00 | 68 | 1009.5 |
| 20260505230505 | 63 | 211 | 10.0 | 32.0 | 0.00 | 0.00 | 0.00 | 68 | 1009.4 |
| 20260505230404 | 63 | 214 | 9.0 | 32.0 | 0.00 | 0.00 | 0.00 | 68 | 1009.4 |
| 20260505230304 | 63 | 215 | 9.0 | 32.0 | 0.00 | 0.00 | 0.00 | 68 | 1009.4 |
| 20260505230204 | 63 | 216 | 9.0 | 32.0 | 0.00 | 0.00 | 0.00 | 68 | 1009.5 |
| 20260505230123 | 0 | 205 | 12.0 | 28.0 | 0.00 | 0.00 | 0.00 | 1009.6 | |
| 20260505230104 | 63 | 219 | 9.0 | 32.0 | 0.00 | 0.00 | 0.00 | 68 | 1009.4 |
| 20260505230004 | 63 | 220 | 10.0 | 32.0 | 0.00 | 0.00 | 0.00 | 68 | 1009.5 |
| 20260505225904 | 63 | 219 | 10.0 | 32.0 | 0.00 | 0.00 | 0.00 | 68 | 1009.5 |
| 20260505225804 | 63 | 218 | 11.0 | 30.0 | 0.00 | 0.00 | 0.00 | 68 | 1009.4 |
| 20260505225705 | 64 | 217 | 11.0 | 30.0 | 0.00 | 0.00 | 0.00 | 67 | 1009.3 |
| 20260505225604 | 64 | 217 | 11.0 | 30.0 | 0.00 | 0.00 | 0.00 | 67 | 1009.4 |
| 20260505225504 | 64 | 216 | 11.0 | 30.0 | 0.00 | 0.00 | 0.00 | 67 | 1009.5 |
| 20260505225404 | 64 | 213 | 12.0 | 25.0 | 0.00 | 0.00 | 0.00 | 67 | 1009.4 |
| 20260505225306 | 64 | 215 | 12.0 | 25.0 | 0.00 | 0.00 | 0.00 | 67 | 1009.4 |
| 20260505224704 | 64 | 210 | 10.0 | 25.0 | 0.00 | 0.00 | 0.00 | 67 | 1009.4 |
| 20260505224618 | 0 | 223 | 14.0 | 25.0 | 0.00 | 0.00 | 0.00 | 1009.5 | |
| 20260505224604 | 64 | 209 | 10.0 | 25.0 | 0.00 | 0.00 | 0.00 | 67 | 1009.4 |
| 20260505224504 | 64 | 210 | 10.0 | 25.0 | 0.00 | 0.00 | 0.00 | 67 | 1009.2 |
| 20260505224404 | 64 | 212 | 10.0 | 22.0 | 0.00 | 0.00 | 0.00 | 67 | 1009.3 |
| 20260505224304 | 64 | 210 | 10.0 | 22.0 | 0.00 | 0.00 | 0.00 | 67 | 1009.3 |
| 20260505224204 | 64 | 212 | 10.0 | 22.0 | 0.00 | 0.00 | 0.00 | 67 | 1009.2 |
| 20260505224104 | 64 | 212 | 10.0 | 22.0 | 0.00 | 0.00 | 0.00 | 67 | 1009.1 |
| 20260505224004 | 64 | 214 | 10.0 | 22.0 | 0.00 | 0.00 | 0.00 | 67 | 1009.3 |
| 20260505223904 | 64 | 216 | 10.0 | 22.0 | 0.00 | 0.00 | 0.00 | 66 | 1009.3 |
| 20260505223804 | 64 | 217 | 10.0 | 22.0 | 0.00 | 0.00 | 0.00 | 66 | 1009.3 |
| 20260505223704 | 64 | 217 | 10.0 | 22.0 | 0.00 | 0.00 | 0.00 | 66 | 1009.3 |
| 20260505223604 | 64 | 218 | 10.0 | 22.0 | 0.00 | 0.00 | 0.00 | 66 | 1009.3 |
| 20260505223505 | 64 | 219 | 10.0 | 22.0 | 0.00 | 0.00 | 0.00 | 66 | 1009.3 |
| 20260505223405 | 64 | 216 | 10.0 | 22.0 | 0.00 | 0.00 | 0.00 | 66 | 1009.3 |
| 20260505223304 | 64 | 218 | 10.0 | 22.0 | 0.00 | 0.00 | 0.00 | 66 | 1009.1 |
| 20260505223104 | 65 | 186 | 11.0 | 25.0 | 0.00 | 0.00 | 0.00 | 64 | 1009.4 |
| 20260505222704 | 65 | 214 | 11.0 | 29.0 | 0.00 | 0.00 | 0.00 | 65 | 1009.0 |
| 20260505222604 | 65 | 215 | 11.0 | 29.0 | 0.00 | 0.00 | 0.00 | 65 | 1009.2 |
| 20260505222504 | 65 | 214 | 10.0 | 29.0 | 0.00 | 0.00 | 0.00 | 64 | 1009.2 |
| 20260505222404 | 65 | 214 | 9.0 | 29.0 | 0.00 | 0.00 | 0.00 | 64 | 1009.2 |
| 20260505222306 | 65 | 215 | 10.0 | 29.0 | 0.00 | 0.00 | 0.00 | 64 | 1009.2 |
| 20260505221616 | 66 | 162 | 6.0 | 17.0 | 0.00 | 0.00 | 0.00 | 64 | 1009.4 |
| 20260505220104 | 66 | 223 | 10.0 | 29.0 | 0.00 | 0.00 | 0.00 | 63 | 1009.2 |
| 20260505220004 | 67 | 204 | 8.0 | 27.0 | 0.00 | 0.00 | 0.00 | 62 | 1009.1 |
| 20260505215904 | 67 | 205 | 8.0 | 22.0 | 0.00 | 0.00 | 0.00 | 62 | 1009.0 |
| 20260505215804 | 67 | 205 | 8.0 | 22.0 | 0.00 | 0.00 | 0.00 | 62 | 1009.0 |
| 20260505215704 | 67 | 203 | 8.0 | 17.0 | 0.00 | 0.00 | 0.00 | 62 | 1009.0 |
| 20260505215604 | 67 | 200 | 8.0 | 17.0 | 0.00 | 0.00 | 0.00 | 62 | 1009.0 |
| 20260505215504 | 67 | 202 | 8.0 | 17.0 | 0.00 | 0.00 | 0.00 | 62 | 1008.8 |
| 20260505214614 | 67 | 142 | 5.0 | 19.0 | 0.00 | 0.00 | 0.00 | 61 | 1008.9 |
| 20260505214304 | 68 | 204 | 8.0 | 19.0 | 0.00 | 0.00 | 0.00 | 61 | 1008.8 |
| 20260505214204 | 68 | 202 | 8.0 | 19.0 | 0.00 | 0.00 | 0.00 | 61 | 1008.8 |
| 20260505214104 | 68 | 201 | 7.0 | 19.0 | 0.00 | 0.00 | 0.00 | 61 | 1008.9 |
| 20260505214004 | 68 | 200 | 7.0 | 19.0 | 0.00 | 0.00 | 0.00 | 61 | 1008.9 |
| 20260505213904 | 68 | 200 | 7.0 | 19.0 | 0.00 | 0.00 | 0.00 | 61 | 1008.8 |
| 20260505213805 | 68 | 199 | 7.0 | 19.0 | 0.00 | 0.00 | 0.00 | 61 | 1008.8 |
| 20260505213704 | 68 | 201 | 7.0 | 19.0 | 0.00 | 0.00 | 0.00 | 61 | 1009.0 |
| 20260505213604 | 68 | 203 | 6.0 | 19.0 | 0.00 | 0.00 | 0.00 | 61 | 1009.0 |
| 20260505213504 | 68 | 204 | 7.0 | 14.0 | 0.00 | 0.00 | 0.00 | 62 | 1009.0 |
| 20260505213404 | 68 | 206 | 7.0 | 14.0 | 0.00 | 0.00 | 0.00 | 61 | 1008.9 |
| 20260505213303 | 68 | 206 | 7.0 | 17.0 | 0.00 | 0.00 | 0.00 | 61 | 1009.0 |
| 20260505213204 | 68 | 209 | 7.0 | 17.0 | 0.00 | 0.00 | 0.00 | 61 | 1009.0 |
| 20260505213104 | 68 | 210 | 7.0 | 17.0 | 0.00 | 0.00 | 0.00 | 61 | 1008.9 |
| 20260505213004 | 68 | 212 | 7.0 | 17.0 | 0.00 | 0.00 | 0.00 | 61 | 1009.0 |
| 20260505212904 | 69 | 213 | 8.0 | 17.0 | 0.00 | 0.00 | 0.00 | 61 | 1008.9 |
| 20260505212203 | 69 | 210 | 8.0 | 18.0 | 0.00 | 0.00 | 0.00 | 61 | 1008.9 |
| 20260505212104 | 69 | 209 | 8.0 | 18.0 | 0.00 | 0.00 | 0.00 | 61 | 1008.8 |